| time (UTC) | temp C | wind direction | speed KPH | gust KPH | rain 1hr cm | rain 24hr cm | rain mn cm | humidity % | barometer mb |
| 20260510152521 | 25 | 297 | 0.0 | 4.8 | 0.00 | 0.36 | 0.38 | 60 | 1012.9 |
| 20260510152420 | 25 | 251 | 3.2 | 4.8 | 0.00 | 0.36 | 0.38 | 60 | 1013.0 |
| 20260510152020 | 25 | 0 | 3.2 | 4.8 | 0.00 | 0.36 | 0.38 | 59 | 1013.0 |
| 20260510151920 | 25 | 53 | 3.2 | 6.4 | 0.00 | 0.36 | 0.38 | 59 | 1013.2 |
| 20260510151820 | 25 | 141 | 3.2 | 4.8 | 0.00 | 0.36 | 0.38 | 59 | 1013.2 |
| 20260510151720 | 25 | 201 | 3.2 | 8.0 | 0.00 | 0.36 | 0.38 | 59 | 1013.3 |
| 20260510151620 | 25 | 120 | 6.4 | 6.4 | 0.00 | 0.36 | 0.38 | 59 | 1013.4 |
| 20260510151520 | 25 | 240 | 0.0 | 4.8 | 0.00 | 0.36 | 0.38 | 59 | 1013.1 |
| 20260510151420 | 25 | 55 | 3.2 | 4.8 | 0.00 | 0.36 | 0.38 | 59 | 1013.2 |
| 20260510151320 | 25 | 308 | 1.6 | 6.4 | 0.00 | 0.36 | 0.38 | 60 | 1013.4 |
| 20260510151121 | 25 | 123 | 0.0 | 3.2 | 0.00 | 0.36 | 0.38 | 62 | 1013.1 |
| 20260510151021 | 25 | 205 | 1.6 | 3.2 | 0.00 | 0.36 | 0.38 | 61 | 1013.3 |
| 20260510150920 | 24 | 25 | 3.2 | 4.8 | 0.00 | 0.36 | 0.38 | 61 | 1013.3 |
| 20260510150820 | 24 | 20 | 1.6 | 4.8 | 0.00 | 0.36 | 0.38 | 61 | 1013.2 |
| 20260510150219 | 24 | 87 | 1.6 | 6.4 | 0.00 | 0.36 | 0.38 | 62 | 1013.2 |
| 20260510150020 | 24 | 230 | 3.2 | 3.2 | 0.00 | 0.36 | 0.38 | 62 | 1013.3 |
| 20260510145920 | 24 | 184 | 1.6 | 6.4 | 0.00 | 0.36 | 0.38 | 63 | 1013.3 |
| 20260510145619 | 23 | 128 | 3.2 | 4.8 | 0.00 | 0.36 | 0.38 | 65 | 1013.2 |
| 20260510145519 | 23 | 211 | 3.2 | 4.8 | 0.00 | 0.36 | 0.38 | 66 | 1013.5 |
| 20260510145320 | 23 | 331 | 1.6 | 6.4 | 0.00 | 0.36 | 0.38 | 66 | 1013.3 |
| 20260510145220 | 23 | 245 | 3.2 | 4.8 | 0.00 | 0.36 | 0.38 | 66 | 1013.4 |
| 20260510145121 | 23 | 257 | 1.6 | 4.8 | 0.00 | 0.36 | 0.38 | 66 | 1013.3 |
| 20260510145020 | 23 | 64 | 3.2 | 3.2 | 0.00 | 0.36 | 0.38 | 66 | 1013.4 |
| 20260510144720 | 23 | 73 | 6.4 | 6.4 | 0.00 | 0.36 | 0.38 | 67 | 1013.5 |
| 20260510144619 | 23 | 197 | 0.0 | 4.8 | 0.00 | 0.36 | 0.38 | 68 | 1013.3 |
| 20260510144520 | 23 | 85 | 1.6 | 8.0 | 0.00 | 0.36 | 0.38 | 68 | 1013.4 |
| 20260510144320 | 22 | 12 | 3.2 | 8.0 | 0.00 | 0.36 | 0.38 | 68 | 1013.2 |
| 20260510144219 | 22 | 92 | 3.2 | 8.0 | 0.00 | 0.36 | 0.38 | 68 | 1013.5 |
| 20260510144119 | 22 | 172 | 0.0 | 6.4 | 0.00 | 0.36 | 0.38 | 68 | 1013.6 |
| 20260510143919 | 22 | 79 | 1.6 | 9.7 | 0.00 | 0.36 | 0.38 | 69 | 1013.5 |
| 20260510143419 | 22 | 168 | 4.8 | 6.4 | 0.00 | 0.36 | 0.38 | 71 | 1013.6 |
| 20260510143319 | 22 | 38 | 3.2 | 8.0 | 0.00 | 0.36 | 0.38 | 72 | 1013.3 |
| 20260510143219 | 22 | 181 | 1.6 | 9.7 | 0.00 | 0.36 | 0.38 | 72 | 1013.1 |
| 20260510142719 | 22 | 269 | 1.6 | 6.4 | 0.00 | 0.36 | 0.38 | 72 | 1013.3 |
| 20260510142619 | 22 | 40 | 3.2 | 9.7 | 0.00 | 0.36 | 0.38 | 71 | 1013.6 |
| 20260510142419 | 22 | 88 | 4.8 | 6.4 | 0.00 | 0.36 | 0.38 | 73 | 1013.8 |
| 20260510142319 | 22 | 197 | 3.2 | 6.4 | 0.00 | 0.36 | 0.38 | 73 | 1013.8 |
| 20260510142219 | 22 | 88 | 3.2 | 6.4 | 0.00 | 0.36 | 0.38 | 74 | 1014.0 |
| 20260510142119 | 22 | 143 | 1.6 | 4.8 | 0.00 | 0.36 | 0.38 | 75 | 1013.8 |
| 20260510141819 | 21 | 33 | 0.0 | 6.4 | 0.00 | 0.36 | 0.38 | 75 | 1014.0 |
| 20260510141719 | 21 | 195 | 1.6 | 8.0 | 0.00 | 0.36 | 0.38 | 75 | 1013.9 |
| 20260510141419 | 21 | 254 | 3.2 | 6.4 | 0.00 | 0.36 | 0.38 | 77 | 1014.0 |
| 20260510141320 | 21 | 231 | 0.0 | 4.8 | 0.00 | 0.36 | 0.38 | 77 | 1014.0 |
| 20260510141220 | 21 | 31 | 3.2 | 4.8 | 0.00 | 0.36 | 0.38 | 78 | 1013.9 |
| 20260510141120 | 21 | 8 | 0.0 | 3.2 | 0.00 | 0.36 | 0.38 | 77 | 1014.0 |
| 20260510141019 | 21 | 121 | 1.6 | 6.4 | 0.00 | 0.36 | 0.38 | 77 | 1014.0 |
| 20260510140919 | 21 | 109 | 4.8 | 6.4 | 0.00 | 0.36 | 0.38 | 78 | 1014.2 |
| 20260510140819 | 21 | 4 | 1.6 | 4.8 | 0.00 | 0.36 | 0.38 | 78 | 1014.1 |
| 20260510140719 | 21 | 73 | 0.0 | 6.4 | 0.00 | 0.36 | 0.38 | 78 | 1013.9 |
| 20260510140619 | 21 | 99 | 4.8 | 6.4 | 0.00 | 0.36 | 0.38 | 78 | 1013.9 |
| 20260510140319 | 21 | 55 | 3.2 | 6.4 | 0.00 | 0.36 | 0.38 | 79 | 1014.2 |
| 20260510140219 | 21 | 126 | 1.6 | 11.3 | 0.00 | 0.36 | 0.38 | 79 | 1014.2 |
| 20260510135919 | 20 | 93 | 3.2 | 9.7 | 0.00 | 0.36 | 0.38 | 82 | 1014.3 |
| 20260510135620 | 20 | 32 | 3.2 | 3.2 | 0.00 | 0.36 | 0.38 | 83 | 1014.6 |
| 20260510135319 | 20 | 88 | 1.6 | 6.4 | 0.00 | 0.36 | 0.38 | 83 | 1014.5 |
| 20260510135220 | 20 | 132 | 6.4 | 6.4 | 0.00 | 0.36 | 0.38 | 83 | 1014.6 |
| 20260510135020 | 20 | 185 | 3.2 | 4.8 | 0.00 | 0.36 | 0.38 | 84 | 1014.7 |
| 20260510134919 | 20 | 74 | 1.6 | 4.8 | 0.00 | 0.36 | 0.38 | 85 | 1014.8 |
| 20260510134720 | 20 | 347 | 0.0 | 6.4 | 0.00 | 0.36 | 0.38 | 85 | 1014.8 |
| 20260510134619 | 20 | 135 | 1.6 | 6.4 | 0.00 | 0.36 | 0.38 | 86 | 1014.9 |
| 20260510134419 | 19 | 71 | 0.0 | 4.8 | 0.00 | 0.36 | 0.38 | 86 | 1014.8 |
| 20260510134319 | 19 | 23 | 1.6 | 6.4 | 0.00 | 0.36 | 0.38 | 86 | 1015.0 |
| 20260510134219 | 19 | 83 | 3.2 | 6.4 | 0.00 | 0.36 | 0.38 | 87 | 1015.1 |
| 20260510134121 | 19 | 63 | 3.2 | 6.4 | 0.00 | 0.36 | 0.38 | 87 | 1015.1 |
| 20260510133920 | 19 | 32 | 3.2 | 4.8 | 0.00 | 0.36 | 0.38 | 88 | 1015.2 |
| 20260510133820 | 19 | 64 | 3.2 | 4.8 | 0.00 | 0.36 | 0.38 | 89 | 1015.2 |
| 20260510133520 | 18 | 190 | 1.6 | 3.2 | 0.00 | 0.36 | 0.38 | 89 | 1015.3 |
| 20260510133419 | 18 | 54 | 0.0 | 4.8 | 0.00 | 0.36 | 0.38 | 89 | 1015.2 |
| 20260510133119 | 18 | 83 | 0.0 | 6.4 | 0.00 | 0.36 | 0.38 | 88 | 1015.3 |
| 20260510132620 | 18 | 145 | 3.2 | 3.2 | 0.00 | 0.36 | 0.38 | 89 | 1015.2 |
| 20260510132319 | 18 | 152 | 3.2 | 4.8 | 0.00 | 0.36 | 0.38 | 89 | 1015.1 |
| 20260510132220 | 18 | 135 | 0.0 | 6.4 | 0.00 | 0.36 | 0.38 | 89 | 1015.3 |
| 20260510132120 | 18 | 87 | 4.8 | 6.4 | 0.00 | 0.36 | 0.38 | 89 | 1015.2 |
| 20260510132020 | 18 | 85 | 3.2 | 6.4 | 0.00 | 0.36 | 0.38 | 89 | 1015.1 |
| 20260510131920 | 18 | 166 | 0.0 | 6.4 | 0.00 | 0.36 | 0.38 | 89 | 1014.9 |
| 20260510131620 | 18 | 186 | 0.0 | 6.4 | 0.00 | 0.36 | 0.38 | 90 | 1015.0 |
| 20260510131219 | 18 | 143 | 0.0 | 6.4 | 0.00 | 0.36 | 0.38 | 90 | 1014.9 |
| 20260510131120 | 18 | 98 | 1.6 | 8.0 | 0.00 | 0.36 | 0.38 | 90 | 1014.9 |
| 20260510131020 | 18 | 109 | 3.2 | 8.0 | 0.00 | 0.36 | 0.38 | 90 | 1014.7 |
| 20260510130719 | 18 | 117 | 3.2 | 9.7 | 0.00 | 0.36 | 0.38 | 90 | 1015.0 |
| 20260510130619 | 18 | 70 | 4.8 | 6.4 | 0.00 | 0.36 | 0.38 | 90 | 1014.8 |
| 20260510130519 | 18 | 121 | 3.2 | 4.8 | 0.00 | 0.36 | 0.38 | 90 | 1014.6 |
| 20260510130221 | 18 | 94 | 3.2 | 8.0 | 0.00 | 0.36 | 0.38 | 90 | 1015.0 |
| 20260510125921 | 18 | 136 | 3.2 | 6.4 | 0.00 | 0.36 | 0.38 | 90 | 1014.8 |
| 20260510125820 | 18 | 67 | 0.0 | 6.4 | 0.00 | 0.36 | 0.38 | 90 | 1014.9 |
| 20260510125620 | 18 | 278 | 1.6 | 4.8 | 0.00 | 0.36 | 0.38 | 90 | 1014.9 |
| 20260510125521 | 18 | 308 | 3.2 | 6.4 | 0.00 | 0.36 | 0.38 | 90 | 1014.9 |
| 20260510125421 | 18 | 87 | 3.2 | 6.4 | 0.00 | 0.36 | 0.38 | 90 | 1014.8 |
| 20260510124820 | 18 | 100 | 3.2 | 6.4 | 0.00 | 0.36 | 0.38 | 91 | 1014.6 |
| 20260510124720 | 18 | 84 | 6.4 | 9.7 | 0.00 | 0.36 | 0.38 | 91 | 1014.7 |
| 20260510124620 | 18 | 150 | 3.2 | 9.7 | 0.00 | 0.36 | 0.38 | 91 | 1014.6 |
| 20260510124520 | 18 | 28 | 3.2 | 8.0 | 0.00 | 0.36 | 0.38 | 91 | 1014.6 |
| 20260510124221 | 18 | 79 | 4.8 | 8.0 | 0.00 | 0.36 | 0.38 | 91 | 1014.6 |
| 20260510124120 | 18 | 104 | 6.4 | 8.0 | 0.00 | 0.36 | 0.38 | 91 | 1014.7 |
| 20260510123919 | 18 | 43 | 3.2 | 6.4 | 0.00 | 0.36 | 0.38 | 92 | 1014.7 |
| 20260510123819 | 18 | 71 | 3.2 | 6.4 | 0.00 | 0.36 | 0.38 | 92 | 1014.5 |
| 20260510123719 | 18 | 65 | 3.2 | 8.0 | 0.00 | 0.36 | 0.38 | 92 | 1014.7 |
| 20260510123419 | 18 | 114 | 6.4 | 6.4 | 0.00 | 0.36 | 0.38 | 92 | 1014.9 |
| 20260510123320 | 18 | 89 | 4.8 | 8.0 | 0.00 | 0.36 | 0.38 | 92 | 1014.6 |
| 20260510123220 | 18 | 124 | 3.2 | 8.0 | 0.00 | 0.36 | 0.38 | 92 | 1014.7 |
| 20260510123120 | 18 | 146 | 4.8 | 8.0 | 0.00 | 0.36 | 0.38 | 92 | 1014.7 |
| 20260510123019 | 18 | 136 | 3.2 | 8.0 | 0.00 | 0.36 | 0.38 | 93 | 1014.8 |
| 20260510122919 | 18 | 148 | 1.6 | 9.7 | 0.00 | 0.36 | 0.38 | 93 | 1014.7 |
| 20260510122820 | 18 | 128 | 4.8 | 9.7 | 0.00 | 0.36 | 0.38 | 93 | 1014.9 |
| 20260510122719 | 17 | 101 | 1.6 | 8.0 | 0.00 | 0.36 | 0.38 | 93 | 1014.7 |
| 20260510122619 | 17 | 132 | 6.4 | 9.7 | 0.00 | 0.36 | 0.38 | 93 | 1014.6 |
| 20260510122519 | 17 | 117 | 3.2 | 9.7 | 0.00 | 0.36 | 0.38 | 93 | 1014.5 |
| 20260510122219 | 17 | 151 | 6.4 | 8.0 | 0.00 | 0.36 | 0.38 | 93 | 1014.8 |
| 20260510122120 | 17 | 135 | 4.8 | 8.0 | 0.00 | 0.36 | 0.38 | 93 | 1014.6 |
| 20260510122019 | 17 | 119 | 3.2 | 8.0 | 0.00 | 0.36 | 0.38 | 93 | 1014.5 |
| 20260510121919 | 17 | 140 | 8.0 | 8.0 | 0.00 | 0.36 | 0.38 | 93 | 1014.6 |
| 20260510121819 | 17 | 122 | 1.6 | 8.0 | 0.00 | 0.36 | 0.38 | 93 | 1014.4 |
| 20260510121720 | 17 | 150 | 6.4 | 12.9 | 0.00 | 0.36 | 0.38 | 93 | 1014.7 |
| 20260510121419 | 17 | 146 | 6.4 | 9.7 | 0.00 | 0.36 | 0.38 | 93 | 1014.5 |
| 20260510121319 | 17 | 136 | 3.2 | 8.0 | 0.00 | 0.36 | 0.38 | 93 | 1014.5 |
| 20260510121220 | 17 | 146 | 8.0 | 9.7 | 0.00 | 0.36 | 0.38 | 93 | 1014.4 |
| 20260510121019 | 17 | 130 | 6.4 | 6.4 | 0.00 | 0.36 | 0.38 | 93 | 1014.2 |
| 20260510120919 | 17 | 121 | 3.2 | 9.7 | 0.00 | 0.36 | 0.38 | 93 | 1014.4 |
| 20260510120819 | 17 | 115 | 6.4 | 9.7 | 0.00 | 0.36 | 0.38 | 93 | 1014.4 |
| 20260510120719 | 17 | 156 | 4.8 | 8.0 | 0.00 | 0.36 | 0.38 | 93 | 1014.5 |
| 20260510120620 | 17 | 134 | 6.4 | 8.0 | 0.00 | 0.36 | 0.38 | 93 | 1014.3 |
| 20260510120519 | 17 | 149 | 4.8 | 6.4 | 0.00 | 0.36 | 0.38 | 93 | 1014.3 |
| 20260510120419 | 17 | 95 | 3.2 | 6.4 | 0.00 | 0.36 | 0.38 | 93 | 1014.2 |
| 20260510120320 | 17 | 143 | 3.2 | 4.8 | 0.00 | 0.36 | 0.38 | 93 | 1014.2 |
| 20260510120120 | 17 | 151 | 3.2 | 6.4 | 0.00 | 0.36 | 0.38 | 93 | 1014.3 |
| 20260510120020 | 17 | 245 | 6.4 | 6.4 | 0.00 | 0.36 | 0.38 | 93 | 1014.2 |
| 20260510115920 | 17 | 61 | 3.2 | 6.4 | 0.00 | 0.36 | 0.38 | 93 | 1014.4 |
| 20260510115820 | 17 | 106 | 4.8 | 9.7 | 0.00 | 0.36 | 0.38 | 93 | 1014.3 |
| 20260510115721 | 17 | 123 | 4.8 | 9.7 | 0.00 | 0.36 | 0.38 | 93 | 1014.3 |
| 20260510115221 | 17 | 113 | 3.2 | 8.0 | 0.00 | 0.36 | 0.38 | 94 | 1014.4 |
| 20260510115120 | 17 | 141 | 1.6 | 9.7 | 0.00 | 0.36 | 0.38 | 94 | 1014.2 |
| 20260510114820 | 17 | 202 | 3.2 | 8.0 | 0.00 | 0.36 | 0.38 | 94 | 1014.2 |
| 20260510114720 | 17 | 92 | 4.8 | 8.0 | 0.00 | 0.36 | 0.38 | 94 | 1014.4 |
| 20260510114620 | 17 | 60 | 4.8 | 8.0 | 0.00 | 0.36 | 0.38 | 94 | 1014.4 |
| 20260510114520 | 17 | 101 | 8.0 | 8.0 | 0.00 | 0.36 | 0.38 | 94 | 1014.1 |
| 20260510114220 | 17 | 108 | 4.8 | 8.0 | 0.00 | 0.36 | 0.38 | 94 | 1014.3 |
| 20260510114021 | 17 | 114 | 3.2 | 4.8 | 0.00 | 0.36 | 0.38 | 94 | 1014.4 |
| 20260510113919 | 17 | 55 | 3.2 | 8.0 | 0.00 | 0.36 | 0.38 | 94 | 1014.4 |
| 20260510113819 | 17 | 96 | 6.4 | 8.0 | 0.00 | 0.36 | 0.38 | 94 | 1014.3 |
| 20260510113619 | 17 | 34 | 4.8 | 8.0 | 0.00 | 0.36 | 0.38 | 94 | 1014.3 |
| 20260510113519 | 17 | 342 | 3.2 | 8.0 | 0.00 | 0.36 | 0.38 | 94 | 1014.4 |
| 20260510113419 | 17 | 59 | 4.8 | 9.7 | 0.00 | 0.36 | 0.38 | 94 | 1014.1 |
| 20260510113319 | 17 | 78 | 1.6 | 9.7 | 0.00 | 0.36 | 0.38 | 94 | 1014.0 |
| 20260510113219 | 17 | 56 | 6.4 | 6.4 | 0.00 | 0.36 | 0.38 | 94 | 1013.9 |
| 20260510113119 | 17 | 27 | 3.2 | 6.4 | 0.00 | 0.36 | 0.38 | 94 | 1013.9 |
| 20260510112819 | 17 | 297 | 4.8 | 6.4 | 0.00 | 0.36 | 0.38 | 94 | 1014.2 |
| 20260510112719 | 17 | 14 | 0.0 | 8.0 | 0.00 | 0.36 | 0.38 | 94 | 1014.4 |
| 20260510112619 | 17 | 83 | 3.2 | 8.0 | 0.00 | 0.36 | 0.38 | 94 | 1014.2 |
| 20260510112519 | 17 | 131 | 3.2 | 8.0 | 0.00 | 0.36 | 0.38 | 94 | 1014.2 |
| 20260510112419 | 17 | 96 | 3.2 | 6.4 | 0.00 | 0.36 | 0.38 | 94 | 1014.1 |
| 20260510112319 | 17 | 49 | 1.6 | 8.0 | 0.00 | 0.36 | 0.38 | 94 | 1014.3 |
| 20260510112220 | 17 | 100 | 6.4 | 8.0 | 0.00 | 0.36 | 0.38 | 94 | 1014.4 |
| 20260510112119 | 17 | 57 | 0.0 | 6.4 | 0.00 | 0.36 | 0.38 | 94 | 1014.2 |
| 20260510111820 | 17 | 83 | 8.0 | 8.0 | 0.00 | 0.36 | 0.38 | 94 | 1014.1 |
| 20260510111720 | 17 | 101 | 3.2 | 4.8 | 0.00 | 0.36 | 0.38 | 94 | 1014.1 |
| 20260510111619 | 17 | 79 | 1.6 | 6.4 | 0.00 | 0.36 | 0.38 | 94 | 1014.0 |
| 20260510111519 | 17 | 87 | 1.6 | 6.4 | 0.00 | 0.36 | 0.38 | 94 | 1014.1 |
| 20260510111319 | 17 | 77 | 3.2 | 8.0 | 0.00 | 0.36 | 0.38 | 94 | 1014.3 |
| 20260510111219 | 17 | 77 | 4.8 | 6.4 | 0.00 | 0.36 | 0.38 | 94 | 1014.3 |
| 20260510111120 | 17 | 85 | 1.6 | 6.4 | 0.00 | 0.36 | 0.38 | 94 | 1014.0 |
| 20260510111020 | 17 | 87 | 1.6 | 6.4 | 0.00 | 0.36 | 0.38 | 94 | 1014.0 |
| 20260510110719 | 17 | 82 | 1.6 | 4.8 | 0.00 | 0.36 | 0.38 | 94 | 1014.1 |
| 20260510110619 | 17 | 95 | 3.2 | 4.8 | 0.00 | 0.36 | 0.38 | 94 | 1014.1 |
| 20260510110519 | 17 | 68 | 1.6 | 4.8 | 0.00 | 0.36 | 0.38 | 94 | 1014.2 |
| 20260510110419 | 17 | 130 | 0.0 | 4.8 | 0.00 | 0.36 | 0.38 | 94 | 1014.1 |
| 20260510110320 | 17 | 130 | 1.6 | 3.2 | 0.00 | 0.36 | 0.38 | 94 | 1013.9 |
| 20260510110120 | 17 | 139 | 1.6 | 6.4 | 0.00 | 0.36 | 0.38 | 93 | 1014.1 |
| 20260510110020 | 17 | 114 | 3.2 | 6.4 | 0.00 | 0.36 | 0.38 | 93 | 1014.0 |
| 20260510105920 | 17 | 159 | 3.2 | 8.0 | 0.00 | 0.36 | 0.38 | 93 | 1014.1 |
| 20260510105820 | 17 | 95 | 6.4 | 6.4 | 0.00 | 0.36 | 0.38 | 93 | 1014.1 |
| 20260510105720 | 17 | 127 | 0.0 | 6.4 | 0.00 | 0.36 | 0.38 | 93 | 1013.9 |
| 20260510105620 | 17 | 115 | 1.6 | 6.4 | 0.00 | 0.36 | 0.38 | 93 | 1013.8 |
| 20260510105221 | 17 | 93 | 1.6 | 9.7 | 0.00 | 0.36 | 0.38 | 93 | 1014.0 |
| 20260510105120 | 17 | 91 | 6.4 | 9.7 | 0.00 | 0.36 | 0.38 | 93 | 1013.9 |
| 20260510105020 | 17 | 77 | 3.2 | 4.8 | 0.00 | 0.36 | 0.38 | 93 | 1013.9 |
| 20260510104920 | 17 | 80 | 4.8 | 6.4 | 0.00 | 0.36 | 0.38 | 93 | 1014.0 |
| 20260510104820 | 17 | 106 | 4.8 | 4.8 | 0.00 | 0.36 | 0.38 | 93 | 1013.8 |
| 20260510104720 | 17 | 116 | 1.6 | 8.0 | 0.00 | 0.36 | 0.38 | 93 | 1013.8 |
| 20260510104620 | 17 | 95 | 1.6 | 9.7 | 0.00 | 0.36 | 0.38 | 93 | 1014.0 |
| 20260510104520 | 17 | 91 | 8.0 | 9.7 | 0.00 | 0.36 | 0.38 | 93 | 1014.1 |
| 20260510104420 | 17 | 110 | 1.6 | 4.8 | 0.00 | 0.36 | 0.38 | 93 | 1013.9 |
| 20260510104320 | 17 | 92 | 3.2 | 4.8 | 0.00 | 0.36 | 0.38 | 93 | 1014.1 |
| 20260510104220 | 17 | 109 | 1.6 | 6.4 | 0.00 | 0.36 | 0.38 | 93 | 1013.6 |
| 20260510104120 | 17 | 116 | 3.2 | 9.7 | 0.00 | 0.36 | 0.38 | 93 | 1014.0 |
| 20260510104021 | 17 | 93 | 3.2 | 9.7 | 0.00 | 0.36 | 0.38 | 93 | 1013.8 |
| 20260510103920 | 17 | 53 | 0.0 | 6.4 | 0.00 | 0.36 | 0.38 | 93 | 1013.7 |
| 20260510103820 | 17 | 96 | 3.2 | 6.4 | 0.00 | 0.36 | 0.38 | 93 | 1013.8 |
| 20260510103520 | 17 | 81 | 4.8 | 9.7 | 0.00 | 0.36 | 0.38 | 93 | 1013.7 |
| 20260510103420 | 17 | 158 | 3.2 | 6.4 | 0.08 | 0.36 | 0.38 | 93 | 1013.7 |
| 20260510103321 | 17 | 109 | 1.6 | 9.7 | 0.08 | 0.36 | 0.38 | 93 | 1013.7 |
| 20260510103221 | 17 | 74 | 3.2 | 9.7 | 0.08 | 0.36 | 0.38 | 93 | 1013.5 |
| 20260510103120 | 17 | 94 | 4.8 | 11.3 | 0.08 | 0.36 | 0.38 | 93 | 1013.5 |
| 20260510103020 | 17 | 81 | 6.4 | 9.7 | 0.08 | 0.36 | 0.38 | 93 | 1013.8 |
| 20260510102920 | 17 | 89 | 3.2 | 6.4 | 0.10 | 0.36 | 0.38 | 93 | 1013.6 |
| 20260510102821 | 17 | 115 | 3.2 | 8.0 | 0.10 | 0.36 | 0.38 | 93 | 1013.9 |
| 20260510102720 | 17 | 71 | 6.4 | 8.0 | 0.10 | 0.36 | 0.38 | 93 | 1013.6 |
| 20260510102621 | 17 | 92 | 4.8 | 6.4 | 0.10 | 0.36 | 0.38 | 93 | 1013.7 |
| 20260510102520 | 17 | 98 | 1.6 | 6.4 | 0.10 | 0.36 | 0.38 | 93 | 1013.7 |
| 20260510102220 | 17 | 136 | 3.2 | 9.7 | 0.15 | 0.36 | 0.38 | 93 | 1013.8 |
| 20260510102120 | 17 | 89 | 3.2 | 9.7 | 0.15 | 0.36 | 0.38 | 93 | 1013.5 |
| 20260510102021 | 17 | 99 | 3.2 | 4.8 | 0.15 | 0.36 | 0.38 | 93 | 1013.8 |
| 20260510101920 | 17 | 48 | 3.2 | 8.0 | 0.20 | 0.36 | 0.38 | 93 | 1013.8 |
| 20260510101820 | 17 | 118 | 3.2 | 8.0 | 0.20 | 0.36 | 0.38 | 93 | 1013.6 |
| 20260510101720 | 17 | 98 | 3.2 | 6.4 | 0.20 | 0.36 | 0.38 | 93 | 1013.7 |
| 20260510101620 | 17 | 69 | 3.2 | 6.4 | 0.20 | 0.36 | 0.38 | 93 | 1013.5 |
| 20260510101220 | 17 | 123 | 3.2 | 9.7 | 0.33 | 0.36 | 0.38 | 92 | 1013.7 |
| 20260510101120 | 17 | 105 | 4.8 | 9.7 | 0.33 | 0.36 | 0.38 | 92 | 1013.9 |
| 20260510101020 | 17 | 110 | 3.2 | 9.7 | 0.33 | 0.36 | 0.38 | 92 | 1013.8 |
| 20260510100720 | 17 | 76 | 4.8 | 11.3 | 0.38 | 0.36 | 0.38 | 92 | 1013.8 |
| 20260510100620 | 17 | 82 | 9.7 | 12.9 | 0.38 | 0.36 | 0.38 | 92 | 1014.1 |
| 20260510100520 | 17 | 131 | 6.4 | 12.9 | 0.38 | 0.36 | 0.38 | 92 | 1013.9 |
| 20260510100420 | 17 | 121 | 4.8 | 9.7 | 0.38 | 0.36 | 0.38 | 92 | 1013.9 |
| 20260510100220 | 17 | 79 | 6.4 | 11.3 | 0.38 | 0.36 | 0.38 | 92 | 1013.9 |
| 20260510100120 | 17 | 26 | 3.2 | 9.7 | 0.38 | 0.36 | 0.38 | 93 | 1013.9 |
| 20260510100020 | 17 | 84 | 6.4 | 6.4 | 0.38 | 0.36 | 0.38 | 93 | 1014.1 |
| 20260510095920 | 17 | 24 | 1.6 | 6.4 | 0.38 | 0.36 | 0.38 | 92 | 1014.0 |
| 20260510095820 | 17 | 15 | 1.6 | 9.7 | 0.38 | 0.36 | 0.38 | 92 | 1014.2 |
| 20260510095720 | 17 | 79 | 6.4 | 9.7 | 0.38 | 0.36 | 0.38 | 92 | 1014.1 |
| 20260510095620 | 17 | 121 | 1.6 | 8.0 | 0.38 | 0.36 | 0.38 | 92 | 1014.1 |
| 20260510095520 | 17 | 93 | 3.2 | 12.9 | 0.38 | 0.36 | 0.38 | 92 | 1013.9 |
| 20260510095420 | 17 | 351 | 1.6 | 12.9 | 0.38 | 0.36 | 0.38 | 92 | 1013.8 |
| 20260510095320 | 17 | 72 | 6.4 | 11.3 | 0.38 | 0.36 | 0.38 | 92 | 1014.1 |
| 20260510095020 | 17 | 88 | 8.0 | 11.3 | 0.38 | 0.36 | 0.38 | 92 | 1014.1 |
| 20260510094920 | 17 | 22 | 6.4 | 9.7 | 0.38 | 0.36 | 0.38 | 92 | 1014.0 |
| 20260510094820 | 17 | 51 | 4.8 | 14.5 | 0.38 | 0.36 | 0.38 | 92 | 1013.7 |
| 20260510094720 | 17 | 124 | 9.7 | 14.5 | 0.38 | 0.36 | 0.38 | 92 | 1013.7 |
| 20260510094420 | 17 | 55 | 6.4 | 12.9 | 0.38 | 0.36 | 0.38 | 91 | 1013.8 |
| 20260510094321 | 17 | 65 | 6.4 | 11.3 | 0.38 | 0.36 | 0.38 | 91 | 1013.7 |
| 20260510094220 | 18 | 47 | 3.2 | 17.7 | 0.38 | 0.36 | 0.38 | 91 | 1013.8 |
| 20260510094120 | 18 | 22 | 11.3 | 17.7 | 0.38 | 0.36 | 0.38 | 91 | 1013.8 |
| 20260510094020 | 18 | 99 | 0.0 | 9.7 | 0.38 | 0.36 | 0.38 | 90 | 1013.7 |
| 20260510093920 | 18 | 81 | 4.8 | 16.1 | 0.38 | 0.36 | 0.38 | 90 | 1013.8 |
| 20260510093821 | 18 | 31 | 1.6 | 17.7 | 0.38 | 0.33 | 0.38 | 89 | 1013.7 |
| 20260510093720 | 18 | 75 | 9.7 | 25.7 | 0.36 | 0.33 | 0.36 | 89 | 1013.6 |
| 20260510093620 | 18 | 76 | 6.4 | 25.7 | 0.33 | 0.30 | 0.33 | 89 | 1013.3 |
| 20260510093520 | 18 | 124 | 3.2 | 19.3 | 0.33 | 0.30 | 0.33 | 89 | 1013.0 |
| 20260510093420 | 18 | 120 | 6.4 | 17.7 | 0.30 | 0.28 | 0.30 | 89 | 1012.8 |
| 20260510093320 | 18 | 128 | 8.0 | 17.7 | 0.30 | 0.28 | 0.30 | 89 | 1012.9 |
| 20260510093220 | 18 | 79 | 6.4 | 12.9 | 0.30 | 0.28 | 0.30 | 89 | 1013.2 |
| 20260510093120 | 18 | 65 | 3.2 | 6.4 | 0.28 | 0.25 | 0.28 | 89 | 1013.2 |
| 20260510093020 | 18 | 125 | 3.2 | 14.5 | 0.28 | 0.25 | 0.28 | 89 | 1013.4 |
| 20260510092721 | 18 | 123 | 4.8 | 14.5 | 0.23 | 0.20 | 0.23 | 89 | 1013.6 |
| 20260510092620 | 18 | 89 | 6.4 | 14.5 | 0.23 | 0.20 | 0.23 | 88 | 1013.7 |
| 20260510092321 | 18 | 55 | 4.8 | 9.7 | 0.20 | 0.15 | 0.20 | 86 | 1013.7 |
| 20260510092221 | 18 | 125 | 6.4 | 12.9 | 0.18 | 0.15 | 0.18 | 86 | 1013.7 |
| 20260510091920 | 19 | 37 | 6.4 | 11.3 | 0.15 | 0.13 | 0.15 | 84 | 1014.3 |
| 20260510091820 | 19 | 82 | 3.2 | 11.3 | 0.15 | 0.10 | 0.15 | 83 | 1014.3 |
| 20260510091720 | 20 | 168 | 1.6 | 9.7 | 0.13 | 0.08 | 0.13 | 82 | 1013.8 |
| 20260510091620 | 20 | 231 | 3.2 | 9.7 | 0.10 | 0.03 | 0.10 | 80 | 1014.2 |
| 20260510091420 | 20 | 58 | 4.8 | 16.1 | 0.03 | 0.00 | 0.03 | 77 | 1014.1 |
| 20260510091220 | 21 | 147 | 6.4 | 14.5 | 0.00 | 0.00 | 0.00 | 74 | 1014.2 |
| 20260510091120 | 21 | 261 | 12.9 | 14.5 | 0.00 | 0.00 | 0.00 | 74 | 1014.2 |
| 20260510091020 | 21 | 255 | 4.8 | 12.9 | 0.00 | 0.00 | 0.00 | 73 | 1014.2 |
| 20260510090921 | 21 | 227 | 8.0 | 17.7 | 0.00 | 0.00 | 0.00 | 73 | 1014.1 |
| 20260510090821 | 21 | 51 | 9.7 | 17.7 | 0.00 | 0.00 | 0.00 | 73 | 1014.1 |
| 20260510090720 | 21 | 190 | 3.2 | 9.7 | 0.00 | 0.00 | 0.00 | 73 | 1014.0 |
| 20260510090520 | 21 | 45 | 4.8 | 14.5 | 0.00 | 0.00 | 0.00 | 72 | 1013.7 |
| 20260510090320 | 21 | 46 | 3.2 | 11.3 | 0.00 | 0.00 | 0.00 | 73 | 1013.6 |
| 20260510090020 | 22 | 28 | 3.2 | 8.0 | 0.00 | 0.00 | 0.00 | 75 | 1013.0 |
| 20260510085820 | 22 | 28 | 3.2 | 12.9 | 0.00 | 0.00 | 0.00 | 76 | 1013.1 |
| 20260510085520 | 22 | 70 | 12.9 | 22.5 | 0.00 | 0.00 | 0.00 | 85 | 1013.0 |
| 20260510085419 | 22 | 15 | 4.8 | 6.4 | 0.00 | 0.00 | 0.00 | 86 | 1012.7 |
| 20260510085320 | 22 | 178 | 3.2 | 6.4 | 0.00 | 0.00 | 0.00 | 86 | 1012.6 |
| 20260510085220 | 22 | 42 | 3.2 | 6.4 | 0.00 | 0.00 | 0.00 | 86 | 1012.8 |
| 20260510085020 | 23 | 60 | 6.4 | 6.4 | 0.00 | 0.00 | 0.00 | 88 | 1012.6 |
| 20260510084920 | 23 | 234 | 3.2 | 6.4 | 0.00 | 0.00 | 0.00 | 89 | 1012.6 |
| 20260510084620 | 23 | 265 | 3.2 | 6.4 | 0.00 | 0.00 | 0.00 | 89 | 1012.4 |
| 20260510084219 | 23 | 46 | 0.0 | 4.8 | 0.00 | 0.00 | 0.00 | 89 | 1012.5 |
| 20260510083920 | 22 | 6 | 3.2 | 11.3 | 0.00 | 0.00 | 0.00 | 89 | 1012.1 |
| 20260510083620 | 22 | 72 | 9.7 | 9.7 | 0.00 | 0.00 | 0.00 | 90 | 1011.9 |
| 20260510083320 | 22 | 13 | 6.4 | 8.0 | 0.00 | 0.00 | 0.00 | 89 | 1012.0 |
| 20260510083220 | 22 | 43 | 6.4 | 8.0 | 0.00 | 0.00 | 0.00 | 89 | 1011.9 |
| 20260510083120 | 22 | 111 | 1.6 | 8.0 | 0.00 | 0.00 | 0.00 | 89 | 1011.7 |
| 20260510083021 | 22 | 34 | 0.0 | 6.4 | 0.00 | 0.00 | 0.00 | 89 | 1011.8 |
| 20260510082920 | 22 | 43 | 3.2 | 6.4 | 0.00 | 0.00 | 0.00 | 89 | 1011.7 |
| 20260510082820 | 22 | 59 | 1.6 | 4.8 | 0.00 | 0.00 | 0.00 | 89 | 1011.7 |
| 20260510082721 | 22 | 28 | 4.8 | 4.8 | 0.00 | 0.00 | 0.00 | 89 | 1011.6 |
| 20260510082620 | 22 | 63 | 1.6 | 6.4 | 0.00 | 0.00 | 0.00 | 89 | 1011.6 |
| 20260510082521 | 22 | 47 | 3.2 | 8.0 | 0.00 | 0.00 | 0.00 | 89 | 1011.5 |
| 20260510082420 | 23 | 85 | 6.4 | 9.7 | 0.00 | 0.00 | 0.00 | 89 | 1011.6 |
| 20260510082120 | 23 | 30 | 3.2 | 8.0 | 0.00 | 0.00 | 0.00 | 89 | 1011.8 |
| 20260510082020 | 23 | 133 | 6.4 | 6.4 | 0.00 | 0.00 | 0.00 | 88 | 1011.8 |
| 20260510081921 | 23 | 18 | 3.2 | 6.4 | 0.00 | 0.00 | 0.00 | 88 | 1011.8 |
| 20260510081620 | 23 | 224 | 1.6 | 4.8 | 0.00 | 0.00 | 0.00 | 88 | 1011.9 |
| 20260510081520 | 23 | 110 | 0.0 | 4.8 | 0.00 | 0.00 | 0.00 | 88 | 1012.1 |
| 20260510081420 | 23 | 140 | 1.6 | 3.2 | 0.00 | 0.00 | 0.00 | 88 | 1012.1 |
| 20260510080920 | 23 | 258 | 3.2 | 3.2 | 0.00 | 0.00 | 0.00 | 88 | 1012.4 |
| 20260510080520 | 23 | 279 | 1.6 | 3.2 | 0.00 | 0.00 | 0.00 | 88 | 1011.9 |
| 20260510080420 | 23 | 2 | 0.0 | 6.4 | 0.00 | 0.00 | 0.00 | 88 | 1011.7 |
| 20260510080019 | 23 | 322 | 0.0 | 4.8 | 0.00 | 0.00 | 0.00 | 88 | 1011.7 |
| 20260510075919 | 23 | 342 | 1.6 | 6.4 | 0.00 | 0.00 | 0.00 | 88 | 1011.5 |
| 20260510075819 | 23 | 60 | 3.2 | 6.4 | 0.00 | 0.00 | 0.00 | 88 | 1011.5 |
| 20260510075720 | 23 | 13 | 3.2 | 4.8 | 0.00 | 0.00 | 0.00 | 87 | 1011.5 |
| 20260510075219 | 23 | 44 | 0.0 | 3.2 | 0.00 | 0.00 | 0.00 | 87 | 1011.2 |
| 20260510075120 | 23 | 12 | 3.2 | 3.2 | 0.00 | 0.00 | 0.00 | 87 | 1011.2 |
| 20260510074720 | 23 | 108 | 0.0 | 3.2 | 0.00 | 0.00 | 0.00 | 86 | 1010.9 |
| 20260510074620 | 23 | 110 | 1.6 | 3.2 | 0.00 | 0.00 | 0.00 | 86 | 1010.7 |
| 20260510074319 | 23 | 356 | 1.6 | 1.6 | 0.00 | 0.00 | 0.00 | 86 | 1010.8 |
| 20260510074119 | 23 | 84 | 0.0 | 3.2 | 0.00 | 0.00 | 0.00 | 86 | 1010.8 |
| 20260510073820 | 23 | 21 | 3.2 | 3.2 | 0.00 | 0.00 | 0.00 | 86 | 1010.8 |
| 20260510073719 | 23 | 89 | 0.0 | 3.2 | 0.00 | 0.00 | 0.00 | 86 | 1010.8 |
| 20260510073620 | 23 | 100 | 1.6 | 3.2 | 0.00 | 0.00 | 0.00 | 86 | 1010.7 |
| 20260510073419 | 23 | 89 | 0.0 | 4.8 | 0.00 | 0.00 | 0.00 | 85 | 1010.7 |
| 20260510073320 | 23 | 110 | 3.2 | 3.2 | 0.00 | 0.00 | 0.00 | 85 | 1010.7 |
| 20260510072620 | 23 | 5 | 0.0 | 6.4 | 0.00 | 0.00 | 0.00 | 85 | 1010.3 |
| 20260510072520 | 23 | 70 | 3.2 | 6.4 | 0.00 | 0.00 | 0.00 | 85 | 1010.3 |
| 20260510072419 | 23 | 96 | 4.8 | 4.8 | 0.00 | 0.00 | 0.00 | 85 | 1010.1 |
| 20260510072320 | 23 | 113 | 0.0 | 4.8 | 0.00 | 0.00 | 0.00 | 85 | 1010.1 |
| 20260510071419 | 23 | 89 | 0.0 | 4.8 | 0.00 | 0.00 | 0.00 | 85 | 1010.1 |
| 20260510071319 | 23 | 138 | 3.2 | 4.8 | 0.00 | 0.00 | 0.00 | 85 | 1009.7 |
| 20260510070819 | 23 | 122 | 6.4 | 6.4 | 0.00 | 0.00 | 0.00 | 84 | 1009.7 |
| 20260510070720 | 23 | 93 | 0.0 | 6.4 | 0.00 | 0.00 | 0.00 | 84 | 1009.8 |
| 20260510070520 | 23 | 41 | 6.4 | 8.0 | 0.00 | 0.00 | 0.00 | 84 | 1009.8 |
| 20260510070419 | 23 | 87 | 1.6 | 6.4 | 0.00 | 0.00 | 0.00 | 84 | 1009.9 |
| 20260510070320 | 23 | 95 | 3.2 | 6.4 | 0.00 | 0.00 | 0.00 | 84 | 1009.8 |
| 20260510070220 | 23 | 135 | 3.2 | 6.4 | 0.00 | 0.00 | 0.00 | 84 | 1009.9 |
| 20260510070120 | 23 | 203 | 0.0 | 12.9 | 0.00 | 0.00 | 0.00 | 84 | 1010.1 |
| 20260510070019 | 23 | 150 | 3.2 | 12.9 | 0.00 | 0.00 | 0.00 | 84 | 1010.0 |
| 20260510065919 | 23 | 134 | 4.8 | 12.9 | 0.00 | 0.00 | 0.00 | 84 | 1009.9 |
| 20260510065821 | 23 | 60 | 4.8 | 12.9 | 0.00 | 0.00 | 0.00 | 84 | 1009.9 |
| 20260510065719 | 23 | 95 | 4.8 | 9.7 | 0.00 | 0.00 | 0.00 | 84 | 1010.1 |
| 20260510065420 | 23 | 137 | 3.2 | 11.3 | 0.00 | 0.00 | 0.00 | 83 | 1009.9 |
| 20260510065320 | 23 | 93 | 4.8 | 11.3 | 0.00 | 0.00 | 0.00 | 83 | 1010.1 |
| 20260510065220 | 23 | 118 | 1.6 | 8.0 | 0.00 | 0.00 | 0.00 | 83 | 1010.1 |
| 20260510065019 | 23 | 179 | 6.4 | 9.7 | 0.00 | 0.00 | 0.00 | 83 | 1010.2 |
| 20260510064919 | 23 | 55 | 3.2 | 8.0 | 0.00 | 0.00 | 0.00 | 83 | 1010.4 |
| 20260510064619 | 23 | 137 | 6.4 | 8.0 | 0.00 | 0.00 | 0.00 | 82 | 1010.9 |
| 20260510064419 | 23 | 314 | 1.6 | 6.4 | 0.00 | 0.00 | 0.00 | 82 | 1011.3 |
| 20260510064319 | 23 | 99 | 3.2 | 9.7 | 0.00 | 0.00 | 0.00 | 82 | 1011.2 |
| 20260510064219 | 23 | 31 | 1.6 | 9.7 | 0.00 | 0.00 | 0.00 | 82 | 1011.5 |
| 20260510064119 | 23 | 135 | 3.2 | 3.2 | 0.00 | 0.00 | 0.00 | 82 | 1011.7 |
| 20260510063920 | 23 | 35 | 0.0 | 4.8 | 0.00 | 0.00 | 0.00 | 82 | 1011.8 |
| 20260510063720 | 23 | 215 | 3.2 | 4.8 | 0.00 | 0.00 | 0.00 | 81 | 1011.6 |
| 20260510063620 | 23 | 235 | 1.6 | 3.2 | 0.00 | 0.00 | 0.00 | 81 | 1011.8 |
| 20260510063520 | 23 | 225 | 1.6 | 3.2 | 0.00 | 0.00 | 0.00 | 81 | 1011.8 |
| 20260510063420 | 23 | 102 | 3.2 | 4.8 | 0.00 | 0.00 | 0.00 | 81 | 1012.0 |
| 20260510063320 | 23 | 279 | 4.8 | 9.7 | 0.00 | 0.00 | 0.00 | 81 | 1012.0 |
| 20260510063219 | 23 | 108 | 1.6 | 9.7 | 0.00 | 0.00 | 0.00 | 81 | 1011.9 |
| 20260510063120 | 24 | 140 | 3.2 | 4.8 | 0.00 | 0.00 | 0.00 | 81 | 1012.1 |
| 20260510063019 | 24 | 236 | 4.8 | 8.0 | 0.00 | 0.00 | 0.00 | 81 | 1012.0 |
| 20260510062919 | 24 | 197 | 4.8 | 6.4 | 0.00 | 0.00 | 0.00 | 81 | 1012.1 |
| 20260510062820 | 24 | 235 | 6.4 | 6.4 | 0.00 | 0.00 | 0.00 | 81 | 1012.2 |
| 20260510062720 | 24 | 241 | 3.2 | 9.7 | 0.00 | 0.00 | 0.00 | 81 | 1012.2 |
| 20260510062419 | 24 | 277 | 3.2 | 9.7 | 0.00 | 0.00 | 0.00 | 81 | 1012.0 |
| 20260510062120 | 24 | 295 | 3.2 | 6.4 | 0.00 | 0.00 | 0.00 | 81 | 1012.2 |
| 20260510061420 | 24 | 173 | 0.0 | 3.2 | 0.00 | 0.00 | 0.00 | 80 | 1011.9 |
| 20260510061319 | 24 | 257 | 3.2 | 3.2 | 0.00 | 0.00 | 0.00 | 80 | 1011.9 |
| 20260510061020 | 24 | 297 | 0.0 | 3.2 | 0.00 | 0.00 | 0.00 | 80 | 1011.8 |
| 20260510060920 | 24 | 260 | 1.6 | 3.2 | 0.00 | 0.00 | 0.00 | 80 | 1012.0 |
| 20260510060720 | 24 | 253 | 0.0 | 4.8 | 0.00 | 0.00 | 0.00 | 79 | 1011.8 |
| 20260510060520 | 24 | 273 | 1.6 | 3.2 | 0.00 | 0.00 | 0.00 | 79 | 1011.7 |
| 20260510060419 | 24 | 37 | 1.6 | 4.8 | 0.00 | 0.00 | 0.00 | 79 | 1011.7 |
| 20260510060319 | 24 | 232 | 3.2 | 4.8 | 0.00 | 0.00 | 0.00 | 79 | 1011.6 |
| 20260510060219 | 24 | 290 | 1.6 | 3.2 | 0.00 | 0.00 | 0.00 | 79 | 1011.6 |
| 20260510055820 | 24 | 309 | 0.0 | 1.6 | 0.00 | 0.00 | 0.00 | 78 | 1010.8 |
| 20260510055620 | 24 | 306 | 1.6 | 3.2 | 0.00 | 0.00 | 0.00 | 78 | 1010.5 |
| 20260510055519 | 24 | 39 | 1.6 | 4.8 | 0.00 | 0.00 | 0.00 | 78 | 1010.7 |
| 20260510055219 | 24 | 23 | 0.0 | 3.2 | 0.00 | 0.00 | 0.00 | 79 | 1010.1 |
| 20260510055120 | 24 | 116 | 3.2 | 4.8 | 0.00 | 0.00 | 0.00 | 79 | 1009.9 |
| 20260510055020 | 24 | 107 | 0.0 | 4.8 | 0.00 | 0.00 | 0.00 | 79 | 1009.8 |
| 20260510054919 | 24 | 79 | 3.2 | 4.8 | 0.00 | 0.00 | 0.00 | 79 | 1009.9 |
| 20260510054820 | 24 | 83 | 3.2 | 4.8 | 0.00 | 0.00 | 0.00 | 79 | 1009.4 |
| 20260510054719 | 24 | 69 | 3.2 | 3.2 | 0.00 | 0.00 | 0.00 | 79 | 1009.7 |
| 20260510054619 | 24 | 66 | 0.0 | 4.8 | 0.00 | 0.00 | 0.00 | 79 | 1009.5 |
| 20260510054519 | 24 | 130 | 3.2 | 6.4 | 0.00 | 0.00 | 0.00 | 79 | 1009.5 |
| 20260510054419 | 24 | 94 | 3.2 | 4.8 | 0.00 | 0.00 | 0.00 | 79 | 1009.5 |
| 20260510054219 | 24 | 50 | 1.6 | 6.4 | 0.00 | 0.00 | 0.00 | 79 | 1009.3 |
| 20260510054120 | 24 | 142 | 3.2 | 6.4 | 0.00 | 0.00 | 0.00 | 78 | 1009.5 |
| 20260510053820 | 24 | 60 | 1.6 | 3.2 | 0.00 | 0.00 | 0.00 | 78 | 1009.3 |
| 20260510053720 | 24 | 48 | 0.0 | 8.0 | 0.00 | 0.00 | 0.00 | 78 | 1009.3 |
| 20260510053619 | 24 | 20 | 1.6 | 8.0 | 0.00 | 0.00 | 0.00 | 78 | 1009.3 |
| 20260510053419 | 24 | 56 | 0.0 | 8.0 | 0.00 | 0.00 | 0.00 | 78 | 1009.3 |
| 20260510053319 | 24 | 96 | 3.2 | 8.0 | 0.00 | 0.00 | 0.00 | 78 | 1009.3 |
| 20260510053220 | 24 | 105 | 4.8 | 4.8 | 0.00 | 0.00 | 0.00 | 78 | 1009.3 |
| 20260510053020 | 24 | 57 | 0.0 | 6.4 | 0.00 | 0.00 | 0.00 | 78 | 1009.3 |
| 20260510052719 | 24 | 72 | 0.0 | 6.4 | 0.00 | 0.00 | 0.00 | 77 | 1009.3 |
| 20260510052620 | 24 | 86 | 1.6 | 6.4 | 0.00 | 0.00 | 0.00 | 77 | 1009.0 |
| 20260510052519 | 24 | 85 | 3.2 | 6.4 | 0.00 | 0.00 | 0.00 | 77 | 1009.2 |
| 20260510052420 | 24 | 80 | 1.6 | 4.8 | 0.00 | 0.00 | 0.00 | 77 | 1009.0 |
| 20260510051820 | 24 | 93 | 3.2 | 6.4 | 0.00 | 0.00 | 0.00 | 76 | 1009.1 |
| 20260510051520 | 24 | 255 | 0.0 | 6.4 | 0.00 | 0.00 | 0.00 | 76 | 1009.1 |
| 20260510051420 | 24 | 34 | 1.6 | 6.4 | 0.00 | 0.00 | 0.00 | 76 | 1009.0 |
| 20260510051220 | 24 | 209 | 0.0 | 14.5 | 0.00 | 0.00 | 0.00 | 76 | 1008.9 |
| 20260510051119 | 24 | 50 | 3.2 | 6.4 | 0.00 | 0.00 | 0.00 | 75 | 1008.9 |
| 20260510051020 | 24 | 103 | 4.8 | 4.8 | 0.00 | 0.00 | 0.00 | 75 | 1008.8 |
| 20260510050920 | 24 | 66 | 0.0 | 8.0 | 0.00 | 0.00 | 0.00 | 75 | 1008.7 |
| 20260510050820 | 24 | 137 | 6.4 | 6.4 | 0.00 | 0.00 | 0.00 | 75 | 1008.9 |
| 20260510050519 | 24 | 73 | 1.6 | 9.7 | 0.00 | 0.00 | 0.00 | 74 | 1008.9 |
| 20260510050419 | 24 | 130 | 4.8 | 9.7 | 0.00 | 0.00 | 0.00 | 74 | 1009.1 |
| 20260510050119 | 24 | 316 | 0.0 | 6.4 | 0.00 | 0.00 | 0.00 | 73 | 1009.3 |
| 20260510050021 | 24 | 137 | 3.2 | 6.4 | 0.00 | 0.00 | 0.00 | 73 | 1009.1 |
| 20260510045920 | 24 | 98 | 4.8 | 6.4 | 0.00 | 0.00 | 0.00 | 73 | 1009.0 |
| 20260510045819 | 24 | 145 | 3.2 | 6.4 | 0.00 | 0.00 | 0.00 | 72 | 1009.0 |
| 20260510045719 | 24 | 58 | 1.6 | 6.4 | 0.00 | 0.00 | 0.00 | 72 | 1008.9 |
| 20260510045420 | 24 | 68 | 1.6 | 3.2 | 0.00 | 0.00 | 0.00 | 71 | 1008.9 |
| 20260510045219 | 25 | 322 | 0.0 | 6.4 | 0.00 | 0.00 | 0.00 | 70 | 1009.1 |
| 20260510045119 | 25 | 110 | 1.6 | 4.8 | 0.00 | 0.00 | 0.00 | 70 | 1008.7 |
| 20260510045019 | 25 | 48 | 0.0 | 4.8 | 0.00 | 0.00 | 0.00 | 70 | 1008.9 |
| 20260510044919 | 25 | 62 | 3.2 | 4.8 | 0.00 | 0.00 | 0.00 | 69 | 1009.0 |
| 20260510044819 | 25 | 124 | 0.0 | 4.8 | 0.00 | 0.00 | 0.00 | 69 | 1008.8 |
| 20260510044719 | 25 | 168 | 3.2 | 4.8 | 0.00 | 0.00 | 0.00 | 69 | 1008.8 |
| 20260510044619 | 25 | 102 | 0.0 | 4.8 | 0.00 | 0.00 | 0.00 | 69 | 1008.7 |
| 20260510044519 | 25 | 80 | 3.2 | 4.8 | 0.00 | 0.00 | 0.00 | 69 | 1008.7 |
| 20260510044419 | 25 | 49 | 3.2 | 4.8 | 0.00 | 0.00 | 0.00 | 69 | 1008.7 |
| 20260510044319 | 25 | 103 | 3.2 | 9.7 | 0.00 | 0.00 | 0.00 | 68 | 1008.6 |
| 20260510044219 | 25 | 127 | 4.8 | 9.7 | 0.00 | 0.00 | 0.00 | 68 | 1008.5 |
| 20260510043919 | 25 | 98 | 3.2 | 8.0 | 0.00 | 0.00 | 0.00 | 67 | 1008.5 |
| 20260510043820 | 25 | 193 | 1.6 | 4.8 | 0.00 | 0.00 | 0.00 | 67 | 1008.4 |
| 20260510043720 | 25 | 122 | 3.2 | 4.8 | 0.00 | 0.00 | 0.00 | 66 | 1008.1 |
| 20260510043620 | 25 | 140 | 3.2 | 9.7 | 0.00 | 0.00 | 0.00 | 66 | 1008.3 |
| 20260510043519 | 25 | 99 | 3.2 | 9.7 | 0.00 | 0.00 | 0.00 | 66 | 1008.4 |
| 20260510043420 | 25 | 78 | 3.2 | 4.8 | 0.00 | 0.00 | 0.00 | 66 | 1008.3 |
| 20260510043319 | 25 | 89 | 0.0 | 4.8 | 0.00 | 0.00 | 0.00 | 66 | 1008.2 |
| 20260510043120 | 25 | 79 | 3.2 | 4.8 | 0.00 | 0.00 | 0.00 | 66 | 1008.2 |
| 20260510043019 | 25 | 129 | 3.2 | 6.4 | 0.00 | 0.00 | 0.00 | 66 | 1008.3 |
| 20260510042619 | 25 | 154 | 0.0 | 3.2 | 0.00 | 0.00 | 0.00 | 66 | 1008.3 |
| 20260510042519 | 25 | 35 | 1.6 | 3.2 | 0.00 | 0.00 | 0.00 | 66 | 1008.3 |
| 20260510042219 | 25 | 113 | 0.0 | 4.8 | 0.00 | 0.00 | 0.00 | 66 | 1008.4 |
| 20260510042119 | 25 | 89 | 1.6 | 4.8 | 0.00 | 0.00 | 0.00 | 66 | 1008.5 |
| 20260510042019 | 25 | 87 | 1.6 | 3.2 | 0.00 | 0.00 | 0.00 | 65 | 1008.4 |
| 20260510041419 | 25 | 96 | 8.0 | 8.0 | 0.00 | 0.00 | 0.00 | 66 | 1008.5 |
| 20260510041120 | 25 | 91 | 0.0 | 4.8 | 0.00 | 0.00 | 0.00 | 66 | 1008.6 |
| 20260510040619 | 25 | 135 | 0.0 | 6.4 | 0.00 | 0.00 | 0.00 | 66 | 1008.7 |
| 20260510040520 | 25 | 103 | 3.2 | 6.4 | 0.00 | 0.00 | 0.00 | 66 | 1008.7 |
| 20260510040420 | 25 | 322 | 0.0 | 3.2 | 0.00 | 0.00 | 0.00 | 66 | 1008.6 |
| 20260510040320 | 25 | 64 | 3.2 | 3.2 | 0.00 | 0.00 | 0.00 | 65 | 1008.6 |
| 20260510040021 | 25 | 117 | 0.0 | 3.2 | 0.00 | 0.00 | 0.00 | 65 | 1008.7 |
| 20260510035420 | 25 | 113 | 0.0 | 6.4 | 0.00 | 0.00 | 0.00 | 65 | 1008.9 |
| 20260510035120 | 25 | 97 | 3.2 | 3.2 | 0.00 | 0.00 | 0.00 | 65 | 1008.8 |
| 20260510035020 | 25 | 58 | 0.0 | 3.2 | 0.00 | 0.00 | 0.00 | 65 | 1008.8 |
| 20260510034920 | 25 | 80 | 1.6 | 3.2 | 0.00 | 0.00 | 0.00 | 65 | 1009.0 |
| 20260510034820 | 25 | 47 | 0.0 | 3.2 | 0.00 | 0.00 | 0.00 | 65 | 1008.9 |
| 20260510034720 | 25 | 89 | 1.6 | 3.2 | 0.00 | 0.00 | 0.00 | 65 | 1008.8 |
| 20260510034420 | 25 | 171 | 3.2 | 4.8 | 0.00 | 0.00 | 0.00 | 64 | 1008.7 |
| 20260510034320 | 25 | 145 | 1.6 | 8.0 | 0.00 | 0.00 | 0.00 | 64 | 1008.7 |
| 20260510034221 | 25 | 147 | 3.2 | 6.4 | 0.00 | 0.00 | 0.00 | 64 | 1008.7 |
| 20260510034019 | 25 | 113 | 0.0 | 4.8 | 0.00 | 0.00 | 0.00 | 64 | 1008.9 |
| 20260510033920 | 25 | 135 | 3.2 | 4.8 | 0.00 | 0.00 | 0.00 | 64 | 1008.7 |
| 20260510033720 | 25 | 104 | 0.0 | 6.4 | 0.00 | 0.00 | 0.00 | 64 | 1008.8 |
| 20260510033619 | 25 | 96 | 3.2 | 6.4 | 0.00 | 0.00 | 0.00 | 64 | 1008.9 |
| 20260510033319 | 25 | 86 | 1.6 | 3.2 | 0.00 | 0.00 | 0.00 | 64 | 1008.9 |
| 20260510033120 | 25 | 44 | 0.0 | 4.8 | 0.00 | 0.00 | 0.00 | 64 | 1009.1 |
| 20260510033019 | 25 | 88 | 3.2 | 4.8 | 0.00 | 0.00 | 0.00 | 64 | 1009.0 |
| 20260510032419 | 25 | 81 | 1.6 | 6.4 | 0.00 | 0.00 | 0.00 | 65 | 1008.9 |
| 20260510032219 | 25 | 62 | 0.0 | 3.2 | 0.00 | 0.00 | 0.00 | 65 | 1008.8 |
| 20260510032120 | 25 | 71 | 3.2 | 3.2 | 0.00 | 0.00 | 0.00 | 65 | 1008.8 |
| 20260510032020 | 25 | 97 | 1.6 | 1.6 | 0.00 | 0.00 | 0.00 | 65 | 1008.8 |
| 20260510031919 | 25 | 39 | 1.6 | 3.2 | 0.00 | 0.00 | 0.00 | 65 | 1008.9 |
| 20260510031520 | 25 | 129 | 0.0 | 3.2 | 0.00 | 0.00 | 0.00 | 65 | 1008.8 |
| 20260510031421 | 25 | 72 | 3.2 | 3.2 | 0.00 | 0.00 | 0.00 | 66 | 1009.0 |
| 20260510031219 | 25 | 103 | 0.0 | 4.8 | 0.00 | 0.00 | 0.00 | 66 | 1008.9 |
| 20260510031119 | 25 | 88 | 1.6 | 3.2 | 0.00 | 0.00 | 0.00 | 66 | 1009.0 |
| 20260510030819 | 25 | 111 | 1.6 | 3.2 | 0.00 | 0.00 | 0.00 | 66 | 1008.9 |
| 20260510030620 | 25 | 173 | 0.0 | 3.2 | 0.00 | 0.00 | 0.00 | 66 | 1008.8 |
| 20260510030519 | 25 | 103 | 3.2 | 3.2 | 0.00 | 0.00 | 0.00 | 66 | 1009.1 |
| 20260510030419 | 25 | 85 | 3.2 | 3.2 | 0.00 | 0.00 | 0.00 | 66 | 1009.1 |
| 20260510030320 | 25 | 69 | 3.2 | 4.8 | 0.00 | 0.00 | 0.00 | 66 | 1008.9 |
| 20260510030220 | 25 | 74 | 3.2 | 4.8 | 0.00 | 0.00 | 0.00 | 66 | 1008.8 |
| 20260510030020 | 25 | 60 | 0.0 | 3.2 | 0.00 | 0.00 | 0.00 | 66 | 1008.8 |
| 20260510025920 | 25 | 94 | 1.6 | 4.8 | 0.00 | 0.00 | 0.00 | 66 | 1008.8 |
| 20260510025820 | 25 | 87 | 3.2 | 4.8 | 0.00 | 0.00 | 0.00 | 66 | 1008.8 |
| 20260510025720 | 25 | 140 | 1.6 | 3.2 | 0.00 | 0.00 | 0.00 | 66 | 1008.7 |
| 20260510025620 | 25 | 111 | 3.2 | 3.2 | 0.00 | 0.00 | 0.00 | 66 | 1008.7 |
| 20260510025520 | 25 | 65 | 1.6 | 3.2 | 0.00 | 0.00 | 0.00 | 66 | 1008.8 |
| 20260510025320 | 25 | 81 | 0.0 | 3.2 | 0.00 | 0.00 | 0.00 | 66 | 1008.6 |
| 20260510025220 | 25 | 145 | 3.2 | 3.2 | 0.00 | 0.00 | 0.00 | 66 | 1009.0 |
| 20260510025021 | 25 | 63 | 0.0 | 3.2 | 0.00 | 0.00 | 0.00 | 66 | 1008.7 |
| 20260510024921 | 25 | 77 | 3.2 | 3.2 | 0.00 | 0.00 | 0.00 | 66 | 1008.8 |
| 20260510024420 | 25 | 75 | 0.0 | 4.8 | 0.00 | 0.00 | 0.00 | 65 | 1008.9 |
| 20260510024320 | 25 | 79 | 3.2 | 4.8 | 0.00 | 0.00 | 0.00 | 65 | 1008.9 |
| 20260510024119 | 25 | 103 | 0.0 | 3.2 | 0.00 | 0.00 | 0.00 | 65 | 1008.9 |
| 20260510024020 | 25 | 73 | 3.2 | 6.4 | 0.00 | 0.00 | 0.00 | 65 | 1008.7 |
| 20260510023920 | 25 | 42 | 1.6 | 6.4 | 0.00 | 0.00 | 0.00 | 65 | 1008.6 |
| 20260510023620 | 25 | 124 | 0.0 | 3.2 | 0.00 | 0.00 | 0.00 | 64 | 1008.9 |
| 20260510023520 | 25 | 99 | 1.6 | 4.8 | 0.00 | 0.00 | 0.00 | 64 | 1008.7 |
| 20260510023220 | 25 | 335 | 0.0 | 4.8 | 0.00 | 0.00 | 0.00 | 64 | 1008.8 |
| 20260510022720 | 25 | 71 | 3.2 | 6.4 | 0.00 | 0.00 | 0.00 | 63 | 1008.6 |
| 20260510022319 | 25 | 116 | 3.2 | 6.4 | 0.00 | 0.00 | 0.00 | 63 | 1008.5 |
| 20260510022220 | 25 | 235 | 0.0 | 6.4 | 0.00 | 0.00 | 0.00 | 63 | 1008.6 |
| 20260510022120 | 25 | 85 | 3.2 | 6.4 | 0.00 | 0.00 | 0.00 | 63 | 1008.5 |
| 20260510021819 | 26 | 76 | 3.2 | 3.2 | 0.00 | 0.00 | 0.00 | 63 | 1008.5 |
| 20260510021720 | 26 | 66 | 3.2 | 3.2 | 0.00 | 0.00 | 0.00 | 63 | 1008.5 |
| 20260510021519 | 26 | 73 | 3.2 | 4.8 | 0.00 | 0.00 | 0.00 | 63 | 1008.5 |
| 20260510021420 | 26 | 21 | 0.0 | 4.8 | 0.00 | 0.00 | 0.00 | 62 | 1008.6 |
| 20260510021319 | 26 | 89 | 1.6 | 4.8 | 0.00 | 0.00 | 0.00 | 62 | 1008.4 |
| 20260510021219 | 26 | 119 | 1.6 | 4.8 | 0.00 | 0.00 | 0.00 | 62 | 1008.5 |
| 20260510021119 | 26 | 116 | 0.0 | 6.4 | 0.00 | 0.00 | 0.00 | 62 | 1008.3 |
| 20260510021019 | 26 | 84 | 4.8 | 6.4 | 0.00 | 0.00 | 0.00 | 62 | 1008.2 |
| 20260510020920 | 26 | 100 | 1.6 | 6.4 | 0.00 | 0.00 | 0.00 | 62 | 1008.4 |
| 20260510020820 | 26 | 89 | 6.4 | 6.4 | 0.00 | 0.00 | 0.00 | 62 | 1008.4 |
| 20260510020719 | 26 | 62 | 0.0 | 4.8 | 0.00 | 0.00 | 0.00 | 62 | 1008.4 |
| 20260510020620 | 26 | 43 | 3.2 | 4.8 | 0.00 | 0.00 | 0.00 | 61 | 1008.3 |
| 20260510020519 | 26 | 45 | 3.2 | 3.2 | 0.00 | 0.00 | 0.00 | 61 | 1008.5 |
| 20260510020419 | 26 | 100 | 3.2 | 3.2 | 0.00 | 0.00 | 0.00 | 61 | 1008.3 |
| 20260510020320 | 26 | 103 | 3.2 | 4.8 | 0.00 | 0.00 | 0.00 | 61 | 1008.4 |
| 20260510020220 | 26 | 168 | 1.6 | 4.8 | 0.00 | 0.00 | 0.00 | 61 | 1008.5 |
| 20260510020121 | 26 | 116 | 3.2 | 6.4 | 0.00 | 0.00 | 0.00 | 61 | 1008.3 |
| 20260510020020 | 26 | 109 | 6.4 | 6.4 | 0.00 | 0.00 | 0.00 | 61 | 1008.4 |
| 20260510015620 | 26 | 118 | 0.0 | 4.8 | 0.00 | 0.00 | 0.00 | 60 | 1008.2 |
| 20260510015520 | 26 | 94 | 3.2 | 6.4 | 0.00 | 0.00 | 0.00 | 60 | 1008.2 |
| 20260510015420 | 26 | 129 | 0.0 | 6.4 | 0.00 | 0.00 | 0.00 | 60 | 1008.3 |
| 20260510015321 | 26 | 50 | 1.6 | 6.4 | 0.00 | 0.00 | 0.00 | 60 | 1008.4 |
| 20260510014820 | 26 | 227 | 0.0 | 1.6 | 0.00 | 0.00 | 0.00 | 59 | 1008.3 |
| 20260510014720 | 26 | 144 | 1.6 | 6.4 | 0.00 | 0.00 | 0.00 | 59 | 1008.3 |
| 20260510014620 | 26 | 92 | 4.8 | 6.4 | 0.00 | 0.00 | 0.00 | 59 | 1008.1 |
| 20260510013620 | 26 | 15 | 0.0 | 4.8 | 0.00 | 0.00 | 0.00 | 58 | 1008.1 |
| 20260510013521 | 26 | 84 | 3.2 | 4.8 | 0.00 | 0.00 | 0.00 | 58 | 1008.1 |
| 20260510013220 | 26 | 60 | 0.0 | 3.2 | 0.00 | 0.00 | 0.00 | 58 | 1008.0 |
| 20260510013120 | 26 | 75 | 3.2 | 3.2 | 0.00 | 0.00 | 0.00 | 58 | 1008.0 |
| 20260510013021 | 26 | 147 | 0.0 | 4.8 | 0.00 | 0.00 | 0.00 | 58 | 1008.2 |
| 20260510012920 | 26 | 98 | 3.2 | 4.8 | 0.00 | 0.00 | 0.00 | 57 | 1007.9 |
| 20260510012821 | 26 | 76 | 3.2 | 4.8 | 0.00 | 0.00 | 0.00 | 57 | 1007.9 |
| 20260510012720 | 26 | 93 | 3.2 | 4.8 | 0.00 | 0.00 | 0.00 | 57 | 1007.8 |
| 20260510012620 | 26 | 60 | 1.6 | 4.8 | 0.00 | 0.00 | 0.00 | 57 | 1007.9 |
| 20260510012520 | 27 | 104 | 3.2 | 3.2 | 0.00 | 0.00 | 0.00 | 57 | 1008.0 |
| 20260510012420 | 27 | 8 | 3.2 | 3.2 | 0.00 | 0.00 | 0.00 | 57 | 1007.9 |
| 20260510012021 | 27 | 154 | 0.0 | 4.8 | 0.00 | 0.00 | 0.00 | 56 | 1007.6 |
| 20260510011920 | 27 | 58 | 4.8 | 4.8 | 0.00 | 0.00 | 0.00 | 56 | 1007.9 |
| 20260510011821 | 27 | 69 | 0.0 | 4.8 | 0.00 | 0.00 | 0.00 | 56 | 1007.6 |
| 20260510011621 | 27 | 85 | 3.2 | 3.2 | 0.00 | 0.00 | 0.00 | 56 | 1007.9 |
| 20260510010820 | 27 | 54 | 0.0 | 4.8 | 0.00 | 0.00 | 0.00 | 54 | 1007.5 |
| 20260510010721 | 27 | 331 | 1.6 | 9.7 | 0.00 | 0.00 | 0.00 | 54 | 1007.8 |
| 20260510010620 | 27 | 35 | 3.2 | 9.7 | 0.00 | 0.00 | 0.00 | 54 | 1007.4 |
| 20260510010520 | 27 | 47 | 3.2 | 6.4 | 0.00 | 0.00 | 0.00 | 53 | 1007.5 |
| 20260510010421 | 27 | 120 | 3.2 | 6.4 | 0.00 | 0.00 | 0.00 | 53 | 1007.5 |
| 20260510010322 | 27 | 54 | 1.6 | 6.4 | 0.00 | 0.00 | 0.00 | 53 | 1007.5 |
| 20260510010120 | 27 | 86 | 3.2 | 6.4 | 0.00 | 0.00 | 0.00 | 53 | 1007.3 |
| 20260510010020 | 27 | 226 | 0.0 | 3.2 | 0.00 | 0.00 | 0.00 | 52 | 1007.7 |
| 20260510005920 | 27 | 101 | 1.6 | 3.2 | 0.00 | 0.00 | 0.00 | 52 | 1007.3 |
| 20260510005620 | 27 | 86 | 3.2 | 6.4 | 0.00 | 0.00 | 0.00 | 52 | 1007.5 |
| 20260510005419 | 27 | 120 | 0.0 | 6.4 | 0.00 | 0.00 | 0.00 | 51 | 1007.5 |
| 20260510005320 | 27 | 110 | 1.6 | 8.0 | 0.00 | 0.00 | 0.00 | 51 | 1007.7 |
| 20260510005120 | 28 | 138 | 4.8 | 4.8 | 0.00 | 0.00 | 0.00 | 51 | 1007.5 |
| 20260510005020 | 28 | 96 | 0.0 | 3.2 | 0.00 | 0.00 | 0.00 | 50 | 1007.5 |
| 20260510004920 | 28 | 222 | 1.6 | 6.4 | 0.00 | 0.00 | 0.00 | 50 | 1007.3 |
| 20260510004820 | 28 | 95 | 4.8 | 4.8 | 0.00 | 0.00 | 0.00 | 50 | 1007.3 |
| 20260510004720 | 28 | 152 | 1.6 | 6.4 | 0.00 | 0.00 | 0.00 | 50 | 1007.5 |
| 20260510004420 | 28 | 83 | 4.8 | 6.4 | 0.00 | 0.00 | 0.00 | 49 | 1007.4 |
| 20260510004320 | 28 | 347 | 3.2 | 6.4 | 0.00 | 0.00 | 0.00 | 49 | 1007.4 |
| 20260510004121 | 28 | 129 | 4.8 | 6.4 | 0.00 | 0.00 | 0.00 | 49 | 1007.5 |
| 20260510004021 | 28 | 229 | 1.6 | 3.2 | 0.00 | 0.00 | 0.00 | 49 | 1007.3 |
| 20260510003920 | 28 | 43 | 1.6 | 3.2 | 0.00 | 0.00 | 0.00 | 49 | 1007.4 |
| 20260510003820 | 28 | 94 | 3.2 | 3.2 | 0.00 | 0.00 | 0.00 | 49 | 1007.4 |
| 20260510003520 | 28 | 267 | 0.0 | 3.2 | 0.00 | 0.00 | 0.00 | 49 | 1007.3 |
| 20260510003421 | 28 | 62 | 3.2 | 3.2 | 0.00 | 0.00 | 0.00 | 49 | 1007.3 |
| 20260510003321 | 28 | 246 | 1.6 | 6.4 | 0.00 | 0.00 | 0.00 | 49 | 1007.4 |
| 20260510003020 | 28 | 288 | 0.0 | 6.4 | 0.00 | 0.00 | 0.00 | 49 | 1007.4 |
| 20260510002920 | 28 | 95 | 3.2 | 8.0 | 0.00 | 0.00 | 0.00 | 49 | 1007.3 |
| 20260510002621 | 28 | 107 | 3.2 | 6.4 | 0.00 | 0.00 | 0.00 | 50 | 1007.1 |
| 20260510002521 | 28 | 107 | 3.2 | 4.8 | 0.00 | 0.00 | 0.00 | 50 | 1007.2 |
| 20260510002320 | 28 | 71 | 0.0 | 3.2 | 0.00 | 0.00 | 0.00 | 50 | 1007.4 |
| 20260510002220 | 28 | 110 | 3.2 | 3.2 | 0.00 | 0.00 | 0.00 | 50 | 1007.2 |
| 20260510002120 | 28 | 142 | 1.6 | 6.4 | 0.00 | 0.00 | 0.00 | 50 | 1007.3 |
| 20260510002020 | 28 | 103 | 3.2 | 6.4 | 0.00 | 0.00 | 0.00 | 50 | 1007.2 |
| 20260510001920 | 28 | 65 | 3.2 | 4.8 | 0.00 | 0.00 | 0.00 | 50 | 1007.3 |
| 20260510001420 | 28 | 85 | 0.0 | 6.4 | 0.00 | 0.00 | 0.00 | 49 | 1007.4 |
| 20260510001320 | 28 | 14 | 3.2 | 6.4 | 0.00 | 0.00 | 0.00 | 50 | 1007.3 |
| 20260510000920 | 28 | 153 | 3.2 | 8.0 | 0.00 | 0.00 | 0.00 | 49 | 1007.3 |
| 20260510000821 | 28 | 329 | 0.0 | 6.4 | 0.00 | 0.00 | 0.00 | 49 | 1007.3 |
| 20260510000720 | 28 | 117 | 1.6 | 6.4 | 0.00 | 0.00 | 0.00 | 49 | 1007.4 |
| 20260510000620 | 28 | 60 | 1.6 | 6.4 | 0.00 | 0.00 | 0.00 | 49 | 1007.3 |
| 20260510000220 | 28 | 145 | 0.0 | 6.4 | 0.00 | 0.00 | 0.00 | 49 | 1007.5 |
| 20260510000120 | 28 | 98 | 4.8 | 6.4 | 0.00 | 0.00 | 0.00 | 49 | 1007.4 |
| 20260510000020 | 28 | 163 | 0.0 | 6.4 | 0.00 | 0.00 | 0.00 | 48 | 1007.4 |
| 20260509235920 | 29 | 96 | 6.4 | 6.4 | 0.00 | 0.00 | 0.00 | 48 | 1007.4 |
| 20260509235821 | 29 | 63 | 3.2 | 4.8 | 0.00 | 0.00 | 0.00 | 48 | 1007.2 |
| 20260509235720 | 29 | 72 | 4.8 | 6.4 | 0.00 | 0.00 | 0.00 | 48 | 1007.4 |
| 20260509235619 | 29 | 103 | 6.4 | 6.4 | 0.00 | 0.00 | 0.00 | 48 | 1007.5 |
| 20260509235519 | 29 | 149 | 3.2 | 6.4 | 0.00 | 0.00 | 0.00 | 48 | 1007.5 |
| 20260509235419 | 29 | 340 | 1.6 | 6.4 | 0.00 | 0.00 | 0.00 | 48 | 1007.5 |
| 20260509235319 | 29 | 132 | 1.6 | 4.8 | 0.00 | 0.00 | 0.00 | 48 | 1007.4 |
| 20260509235220 | 29 | 89 | 1.6 | 3.2 | 0.00 | 0.00 | 0.00 | 48 | 1007.4 |
| 20260509235120 | 29 | 23 | 0.0 | 6.4 | 0.00 | 0.00 | 0.00 | 48 | 1007.5 |
| 20260509234719 | 29 | 89 | 3.2 | 9.7 | 0.00 | 0.00 | 0.00 | 48 | 1007.6 |
| 20260509234620 | 29 | 82 | 3.2 | 8.0 | 0.00 | 0.00 | 0.00 | 49 | 1007.6 |
| 20260509234520 | 29 | 133 | 0.0 | 8.0 | 0.00 | 0.00 | 0.00 | 49 | 1007.3 |
| 20260509234420 | 29 | 340 | 1.6 | 4.8 | 0.00 | 0.00 | 0.00 | 49 | 1007.6 |
| 20260509234320 | 29 | 28 | 1.6 | 4.8 | 0.00 | 0.00 | 0.00 | 49 | 1007.4 |
| 20260509234220 | 29 | 88 | 3.2 | 9.7 | 0.00 | 0.00 | 0.00 | 48 | 1007.2 |
| 20260509234020 | 29 | 124 | 0.0 | 4.8 | 0.00 | 0.00 | 0.00 | 48 | 1007.4 |
| 20260509233920 | 29 | 95 | 3.2 | 4.8 | 0.00 | 0.00 | 0.00 | 48 | 1007.4 |
| 20260509233820 | 30 | 104 | 4.8 | 4.8 | 0.00 | 0.00 | 0.00 | 48 | 1007.4 |
| 20260509233720 | 30 | 101 | 3.2 | 4.8 | 0.00 | 0.00 | 0.00 | 48 | 1007.1 |
| 20260509233620 | 30 | 105 | 4.8 | 4.8 | 0.00 | 0.00 | 0.00 | 48 | 1007.6 |
| 20260509233521 | 30 | 29 | 1.6 | 3.2 | 0.00 | 0.00 | 0.00 | 48 | 1007.4 |
| 20260509233421 | 30 | 338 | 3.2 | 6.4 | 0.00 | 0.00 | 0.00 | 48 | 1007.4 |
| 20260509233320 | 30 | 24 | 6.4 | 6.4 | 0.00 | 0.00 | 0.00 | 49 | 1007.4 |
| 20260509233220 | 30 | 328 | 3.2 | 6.4 | 0.00 | 0.00 | 0.00 | 50 | 1007.4 |
| 20260509233120 | 30 | 58 | 0.0 | 4.8 | 0.00 | 0.00 | 0.00 | 51 | 1007.3 |
| 20260509232920 | 30 | 150 | 3.2 | 4.8 | 0.00 | 0.00 | 0.00 | 51 | 1007.2 |
| 20260509232820 | 30 | 65 | 1.6 | 4.8 | 0.00 | 0.00 | 0.00 | 52 | 1007.4 |
| 20260509232520 | 30 | 184 | 1.6 | 3.2 | 0.00 | 0.00 | 0.00 | 51 | 1007.2 |
| 20260509232420 | 30 | 48 | 3.2 | 3.2 | 0.00 | 0.00 | 0.00 | 52 | 1007.2 |
| 20260509232320 | 30 | 307 | 0.0 | 4.8 | 0.00 | 0.00 | 0.00 | 52 | 1007.4 |
| 20260509232220 | 30 | 239 | 1.6 | 4.8 | 0.00 | 0.00 | 0.00 | 52 | 1007.2 |
| 20260509231920 | 30 | 265 | 1.6 | 4.8 | 0.00 | 0.00 | 0.00 | 52 | 1007.3 |
| 20260509231820 | 30 | 91 | 4.8 | 4.8 | 0.00 | 0.00 | 0.00 | 52 | 1007.1 |
| 20260509231720 | 30 | 37 | 3.2 | 4.8 | 0.00 | 0.00 | 0.00 | 52 | 1007.4 |
| 20260509231520 | 30 | 290 | 0.0 | 6.4 | 0.00 | 0.00 | 0.00 | 52 | 1007.4 |
| 20260509231420 | 30 | 120 | 3.2 | 6.4 | 0.00 | 0.00 | 0.00 | 52 | 1007.3 |
| 20260509231320 | 30 | 89 | 3.2 | 4.8 | 0.00 | 0.00 | 0.00 | 52 | 1007.3 |
| 20260509231220 | 30 | 302 | 0.0 | 8.0 | 0.00 | 0.00 | 0.00 | 51 | 1007.2 |
| 20260509231120 | 30 | 86 | 4.8 | 8.0 | 0.00 | 0.00 | 0.00 | 52 | 1007.2 |
| 20260509231020 | 30 | 13 | 4.8 | 6.4 | 0.00 | 0.00 | 0.00 | 52 | 1007.3 |
| 20260509230920 | 30 | 217 | 0.0 | 8.0 | 0.00 | 0.00 | 0.00 | 52 | 1007.4 |
| 20260509230520 | 30 | 183 | 0.0 | 4.8 | 0.00 | 0.00 | 0.00 | 53 | 1007.4 |
| 20260509230420 | 30 | 178 | 3.2 | 4.8 | 0.00 | 0.00 | 0.00 | 53 | 1007.2 |
| 20260509230320 | 30 | 35 | 3.2 | 4.8 | 0.00 | 0.00 | 0.00 | 52 | 1007.3 |
| 20260509230220 | 30 | 18 | 4.8 | 4.8 | 0.00 | 0.00 | 0.00 | 52 | 1007.4 |
| 20260509230120 | 30 | 182 | 3.2 | 3.2 | 0.00 | 0.00 | 0.00 | 52 | 1007.4 |
| 20260509230020 | 30 | 39 | 0.0 | 6.4 | 0.00 | 0.00 | 0.00 | 51 | 1007.3 |
| 20260509225920 | 30 | 92 | 6.4 | 6.4 | 0.00 | 0.00 | 0.00 | 52 | 1007.4 |
| 20260509225822 | 30 | 34 | 4.8 | 6.4 | 0.00 | 0.00 | 0.00 | 52 | 1007.4 |
| 20260509225720 | 30 | 67 | 1.6 | 6.4 | 0.00 | 0.00 | 0.00 | 52 | 1007.2 |
| 20260509225620 | 30 | 57 | 0.0 | 4.8 | 0.00 | 0.00 | 0.00 | 52 | 1007.4 |
| 20260509225519 | 30 | 144 | 1.6 | 8.0 | 0.00 | 0.00 | 0.00 | 51 | 1007.3 |
| 20260509225419 | 30 | 92 | 4.8 | 8.0 | 0.00 | 0.00 | 0.00 | 52 | 1007.3 |
| 20260509225119 | 30 | 140 | 0.0 | 3.2 | 0.00 | 0.00 | 0.00 | 53 | 1007.3 |
| 20260509224720 | 30 | 141 | 3.2 | 4.8 | 0.00 | 0.00 | 0.00 | 53 | 1007.2 |
| 20260509224619 | 30 | 140 | 0.0 | 4.8 | 0.00 | 0.00 | 0.00 | 53 | 1007.2 |
| 20260509224520 | 30 | 234 | 1.6 | 4.8 | 0.00 | 0.00 | 0.00 | 53 | 1007.1 |
| 20260509224319 | 30 | 172 | 1.6 | 3.2 | 0.00 | 0.00 | 0.00 | 53 | 1007.3 |
| 20260509224220 | 30 | 305 | 3.2 | 3.2 | 0.00 | 0.00 | 0.00 | 52 | 1007.2 |
| 20260509224120 | 30 | 119 | 1.6 | 9.7 | 0.00 | 0.00 | 0.00 | 52 | 1007.3 |
| 20260509224021 | 30 | 109 | 6.4 | 9.7 | 0.00 | 0.00 | 0.00 | 52 | 1007.2 |
| 20260509223620 | 30 | 98 | 3.2 | 6.4 | 0.00 | 0.00 | 0.00 | 52 | 1007.2 |
| 20260509223520 | 30 | 123 | 0.0 | 4.8 | 0.00 | 0.00 | 0.00 | 52 | 1007.2 |
| 20260509223021 | 30 | 298 | 1.6 | 4.8 | 0.00 | 0.00 | 0.00 | 53 | 1007.4 |
| 20260509222721 | 30 | 190 | 0.0 | 4.8 | 0.00 | 0.00 | 0.00 | 53 | 1006.9 |
| 20260509222621 | 30 | 351 | 1.6 | 4.8 | 0.00 | 0.00 | 0.00 | 53 | 1007.3 |
| 20260509222521 | 30 | 314 | 1.6 | 3.2 | 0.00 | 0.00 | 0.00 | 53 | 1007.0 |
| 20260509222420 | 30 | 49 | 1.6 | 4.8 | 0.00 | 0.00 | 0.00 | 53 | 1007.2 |
| 20260509222320 | 30 | 331 | 3.2 | 9.7 | 0.00 | 0.00 | 0.00 | 53 | 1007.4 |
| 20260509222221 | 30 | 165 | 1.6 | 9.7 | 0.00 | 0.00 | 0.00 | 54 | 1007.1 |
| 20260509222121 | 30 | 332 | 3.2 | 4.8 | 0.00 | 0.00 | 0.00 | 54 | 1007.3 |
| 20260509222020 | 30 | 255 | 0.0 | 6.4 | 0.00 | 0.00 | 0.00 | 54 | 1007.3 |
| 20260509221920 | 30 | 21 | 4.8 | 8.0 | 0.00 | 0.00 | 0.00 | 53 | 1006.9 |
| 20260509221621 | 30 | 118 | 1.6 | 9.7 | 0.00 | 0.00 | 0.00 | 53 | 1007.1 |
| 20260509221421 | 30 | 107 | 4.8 | 8.0 | 0.00 | 0.00 | 0.00 | 53 | 1007.3 |
| 20260509221321 | 30 | 171 | 3.2 | 4.8 | 0.00 | 0.00 | 0.00 | 53 | 1007.1 |
| 20260509221120 | 30 | 234 | 0.0 | 3.2 | 0.00 | 0.00 | 0.00 | 53 | 1007.2 |
| 20260509221021 | 30 | 112 | 1.6 | 8.0 | 0.00 | 0.00 | 0.00 | 53 | 1007.2 |
| 20260509220520 | 30 | 93 | 0.0 | 6.4 | 0.00 | 0.00 | 0.00 | 54 | 1007.2 |
| 20260509220422 | 30 | 109 | 3.2 | 6.4 | 0.00 | 0.00 | 0.00 | 54 | 1007.2 |
| 20260509220119 | 30 | 211 | 0.0 | 8.0 | 0.00 | 0.00 | 0.00 | 53 | 1007.2 |
| 20260509220019 | 30 | 92 | 3.2 | 9.7 | 0.00 | 0.00 | 0.00 | 53 | 1007.2 |
| 20260509215919 | 30 | 147 | 6.4 | 8.0 | 0.00 | 0.00 | 0.00 | 53 | 1007.2 |
| 20260509215819 | 30 | 268 | 1.6 | 8.0 | 0.00 | 0.00 | 0.00 | 53 | 1007.2 |
| 20260509215719 | 30 | 107 | 6.4 | 6.4 | 0.00 | 0.00 | 0.00 | 53 | 1007.0 |
| 20260509215620 | 30 | 86 | 3.2 | 6.4 | 0.00 | 0.00 | 0.00 | 52 | 1007.1 |
| 20260509215519 | 30 | 135 | 1.6 | 4.8 | 0.00 | 0.00 | 0.00 | 53 | 1007.0 |
| 20260509215419 | 30 | 292 | 0.0 | 6.4 | 0.00 | 0.00 | 0.00 | 53 | 1007.0 |
| 20260509215320 | 30 | 96 | 4.8 | 4.8 | 0.00 | 0.00 | 0.00 | 54 | 1007.4 |
| 20260509215119 | 30 | 128 | 3.2 | 6.4 | 0.00 | 0.00 | 0.00 | 54 | 1007.1 |
| 20260509215019 | 30 | 294 | 1.6 | 8.0 | 0.00 | 0.00 | 0.00 | 54 | 1007.0 |
| 20260509214920 | 30 | 318 | 0.0 | 8.0 | 0.00 | 0.00 | 0.00 | 54 | 1007.2 |
| 20260509214819 | 30 | 80 | 1.6 | 3.2 | 0.00 | 0.00 | 0.00 | 54 | 1007.0 |
| 20260509214720 | 30 | 53 | 1.6 | 8.0 | 0.00 | 0.00 | 0.00 | 53 | 1007.1 |
| 20260509214619 | 30 | 312 | 0.0 | 8.0 | 0.00 | 0.00 | 0.00 | 54 | 1007.0 |
| 20260509214319 | 30 | 74 | 6.4 | 8.0 | 0.00 | 0.00 | 0.00 | 53 | 1007.3 |
| 20260509214019 | 30 | 174 | 1.6 | 4.8 | 0.00 | 0.00 | 0.00 | 54 | 1007.1 |
| 20260509213719 | 30 | 342 | 0.0 | 6.4 | 0.00 | 0.00 | 0.00 | 53 | 1007.3 |
| 20260509213220 | 30 | 257 | 1.6 | 4.8 | 0.00 | 0.00 | 0.00 | 54 | 1007.4 |
| 20260509213120 | 30 | 313 | 0.0 | 4.8 | 0.00 | 0.00 | 0.00 | 54 | 1007.5 |
| 20260509213020 | 30 | 79 | 3.2 | 6.4 | 0.00 | 0.00 | 0.00 | 54 | 1007.5 |
| 20260509212920 | 30 | 124 | 3.2 | 6.4 | 0.00 | 0.00 | 0.00 | 55 | 1007.4 |
| 20260509212820 | 30 | 80 | 4.8 | 8.0 | 0.00 | 0.00 | 0.00 | 54 | 1007.4 |
| 20260509212720 | 30 | 195 | 0.0 | 8.0 | 0.00 | 0.00 | 0.00 | 54 | 1007.4 |
| 20260509212319 | 30 | 53 | 0.0 | 4.8 | 0.00 | 0.00 | 0.00 | 54 | 1007.4 |
| 20260509212219 | 30 | 326 | 1.6 | 6.4 | 0.00 | 0.00 | 0.00 | 54 | 1007.4 |
| 20260509211820 | 30 | 133 | 4.8 | 8.0 | 0.00 | 0.00 | 0.00 | 54 | 1007.6 |
| 20260509211719 | 30 | 119 | 3.2 | 8.0 | 0.00 | 0.00 | 0.00 | 55 | 1007.6 |
| 20260509211619 | 30 | 236 | 0.0 | 4.8 | 0.00 | 0.00 | 0.00 | 54 | 1007.4 |
| 20260509211320 | 30 | 281 | 1.6 | 4.8 | 0.00 | 0.00 | 0.00 | 53 | 1007.5 |
| 20260509211220 | 30 | 351 | 4.8 | 6.4 | 0.00 | 0.00 | 0.00 | 53 | 1007.6 |
| 20260509211020 | 30 | 325 | 0.0 | 4.8 | 0.00 | 0.00 | 0.00 | 53 | 1007.4 |
| 20260509210919 | 30 | 210 | 3.2 | 4.8 | 0.00 | 0.00 | 0.00 | 53 | 1007.7 |
| 20260509210819 | 30 | 221 | 1.6 | 6.4 | 0.00 | 0.00 | 0.00 | 54 | 1007.7 |
| 20260509210719 | 30 | 202 | 6.4 | 6.4 | 0.00 | 0.00 | 0.00 | 53 | 1007.6 |
| 20260509210619 | 30 | 71 | 3.2 | 4.8 | 0.00 | 0.00 | 0.00 | 53 | 1007.4 |
| 20260509210519 | 31 | 10 | 0.0 | 6.4 | 0.00 | 0.00 | 0.00 | 53 | 1007.4 |
| 20260509210419 | 31 | 97 | 1.6 | 3.2 | 0.00 | 0.00 | 0.00 | 53 | 1007.5 |
| 20260509210219 | 30 | 214 | 0.0 | 3.2 | 0.00 | 0.00 | 0.00 | 53 | 1007.7 |
| 20260509210119 | 31 | 330 | 1.6 | 12.9 | 0.00 | 0.00 | 0.00 | 53 | 1007.6 |
| 20260509210020 | 31 | 112 | 3.2 | 12.9 | 0.00 | 0.00 | 0.00 | 53 | 1007.7 |
| 20260509205719 | 30 | 329 | 1.6 | 4.8 | 0.00 | 0.00 | 0.00 | 53 | 1007.7 |
| 20260509205319 | 31 | 105 | 9.7 | 9.7 | 0.00 | 0.00 | 0.00 | 51 | 1007.6 |
| 20260509205219 | 31 | 241 | 3.2 | 8.0 | 0.00 | 0.00 | 0.00 | 50 | 1007.7 |
| 20260509204919 | 31 | 330 | 1.6 | 4.8 | 0.00 | 0.00 | 0.00 | 51 | 1007.7 |
| 20260509204819 | 31 | 324 | 3.2 | 6.4 | 0.00 | 0.00 | 0.00 | 51 | 1007.8 |
| 20260509204720 | 31 | 338 | 3.2 | 6.4 | 0.00 | 0.00 | 0.00 | 52 | 1007.9 |
| 20260509204419 | 31 | 271 | 0.0 | 6.4 | 0.00 | 0.00 | 0.00 | 53 | 1008.0 |
| 20260509204120 | 30 | 209 | 0.0 | 4.8 | 0.00 | 0.00 | 0.00 | 53 | 1008.0 |
| 20260509204020 | 30 | 346 | 4.8 | 4.8 | 0.00 | 0.00 | 0.00 | 52 | 1008.0 |
| 20260509203919 | 30 | 182 | 3.2 | 4.8 | 0.00 | 0.00 | 0.00 | 53 | 1007.9 |
| 20260509203819 | 30 | 221 | 1.6 | 4.8 | 0.00 | 0.00 | 0.00 | 52 | 1008.0 |
| 20260509203720 | 30 | 113 | 1.6 | 3.2 | 0.00 | 0.00 | 0.00 | 52 | 1007.9 |
| 20260509203321 | 30 | 220 | 4.8 | 8.0 | 0.00 | 0.00 | 0.00 | 52 | 1008.1 |
| 20260509203219 | 31 | 94 | 4.8 | 8.0 | 0.00 | 0.00 | 0.00 | 52 | 1008.1 |
| 20260509203119 | 31 | 204 | 1.6 | 4.8 | 0.00 | 0.00 | 0.00 | 51 | 1007.9 |
| 20260509203020 | 31 | 119 | 3.2 | 4.8 | 0.00 | 0.00 | 0.00 | 52 | 1008.1 |
| 20260509202920 | 31 | 244 | 1.6 | 9.7 | 0.00 | 0.00 | 0.00 | 51 | 1008.0 |
| 20260509202620 | 31 | 223 | 1.6 | 6.4 | 0.00 | 0.00 | 0.00 | 52 | 1007.9 |
| 20260509202520 | 31 | 181 | 3.2 | 8.0 | 0.00 | 0.00 | 0.00 | 51 | 1008.0 |
| 20260509202419 | 31 | 312 | 3.2 | 8.0 | 0.00 | 0.00 | 0.00 | 50 | 1008.1 |
| 20260509202320 | 31 | 148 | 6.4 | 6.4 | 0.00 | 0.00 | 0.00 | 49 | 1008.0 |
| 20260509201919 | 31 | 247 | 0.0 | 6.4 | 0.00 | 0.00 | 0.00 | 46 | 1008.0 |
| 20260509201820 | 31 | 244 | 4.8 | 8.0 | 0.00 | 0.00 | 0.00 | 45 | 1008.2 |
| 20260509201719 | 31 | 284 | 4.8 | 8.0 | 0.00 | 0.00 | 0.00 | 45 | 1007.9 |
| 20260509201620 | 31 | 83 | 4.8 | 4.8 | 0.00 | 0.00 | 0.00 | 45 | 1008.0 |
| 20260509201520 | 31 | 184 | 3.2 | 3.2 | 0.00 | 0.00 | 0.00 | 44 | 1008.1 |
| 20260509201220 | 31 | 296 | 0.0 | 3.2 | 0.00 | 0.00 | 0.00 | 46 | 1008.1 |
| 20260509201119 | 31 | 235 | 3.2 | 4.8 | 0.00 | 0.00 | 0.00 | 46 | 1008.1 |
| 20260509200920 | 31 | 103 | 3.2 | 4.8 | 0.00 | 0.00 | 0.00 | 45 | 1008.0 |
| 20260509200419 | 31 | 256 | 4.8 | 8.0 | 0.00 | 0.00 | 0.00 | 46 | 1008.2 |
| 20260509200323 | 31 | 298 | 3.2 | 6.4 | 0.00 | 0.00 | 0.00 | 46 | 1008.2 |
| 20260509195920 | 31 | 248 | 3.2 | 9.7 | 0.00 | 0.00 | 0.00 | 46 | 1008.3 |
| 20260509195820 | 31 | 253 | 4.8 | 6.4 | 0.00 | 0.00 | 0.00 | 46 | 1008.3 |
| 20260509195420 | 31 | 310 | 0.0 | 9.7 | 0.00 | 0.00 | 0.00 | 46 | 1008.5 |
| 20260509195319 | 31 | 265 | 9.7 | 9.7 | 0.00 | 0.00 | 0.00 | 46 | 1008.2 |
| 20260509195219 | 31 | 254 | 3.2 | 6.4 | 0.00 | 0.00 | 0.00 | 47 | 1008.4 |
| 20260509195019 | 31 | 318 | 3.2 | 3.2 | 0.00 | 0.00 | 0.00 | 48 | 1008.5 |
| 20260509194719 | 30 | 64 | 3.2 | 4.8 | 0.00 | 0.00 | 0.00 | 49 | 1008.4 |
| 20260509194620 | 30 | 332 | 3.2 | 4.8 | 0.00 | 0.00 | 0.00 | 49 | 1008.4 |
| 20260509194519 | 30 | 284 | 3.2 | 3.2 | 0.00 | 0.00 | 0.00 | 48 | 1008.3 |
| 20260509194420 | 30 | 299 | 0.0 | 4.8 | 0.00 | 0.00 | 0.00 | 48 | 1008.5 |
| 20260509194120 | 30 | 4 | 3.2 | 8.0 | 0.00 | 0.00 | 0.00 | 49 | 1008.2 |
| 20260509193719 | 30 | 312 | 1.6 | 4.8 | 0.00 | 0.00 | 0.00 | 50 | 1008.4 |
| 20260509193220 | 31 | 359 | 1.6 | 6.4 | 0.00 | 0.00 | 0.00 | 50 | 1008.7 |
| 20260509193120 | 31 | 99 | 3.2 | 6.4 | 0.00 | 0.00 | 0.00 | 50 | 1008.6 |
| 20260509193019 | 31 | 213 | 3.2 | 6.4 | 0.00 | 0.00 | 0.00 | 49 | 1008.5 |
| 20260509192720 | 31 | 204 | 0.0 | 4.8 | 0.00 | 0.00 | 0.00 | 49 | 1008.4 |
| 20260509192619 | 31 | 224 | 3.2 | 4.8 | 0.00 | 0.00 | 0.00 | 50 | 1008.6 |
| 20260509192319 | 31 | 228 | 0.0 | 3.2 | 0.00 | 0.00 | 0.00 | 53 | 1008.7 |
| 20260509192219 | 31 | 277 | 1.6 | 6.4 | 0.00 | 0.00 | 0.00 | 52 | 1008.5 |
| 20260509192120 | 31 | 264 | 3.2 | 6.4 | 0.00 | 0.00 | 0.00 | 53 | 1008.5 |
| 20260509192020 | 31 | 272 | 3.2 | 3.2 | 0.00 | 0.00 | 0.00 | 53 | 1008.9 |
| 20260509191719 | 30 | 218 | 0.0 | 3.2 | 0.00 | 0.00 | 0.00 | 51 | 1008.7 |
| 20260509191620 | 30 | 197 | 1.6 | 6.4 | 0.00 | 0.00 | 0.00 | 50 | 1008.7 |
| 20260509191520 | 30 | 280 | 3.2 | 6.4 | 0.00 | 0.00 | 0.00 | 51 | 1008.8 |
| 20260509191419 | 30 | 266 | 4.8 | 8.0 | 0.00 | 0.00 | 0.00 | 51 | 1008.8 |
| 20260509191320 | 30 | 284 | 4.8 | 8.0 | 0.00 | 0.00 | 0.00 | 51 | 1008.8 |
| 20260509191220 | 30 | 288 | 1.6 | 6.4 | 0.00 | 0.00 | 0.00 | 51 | 1008.8 |
| 20260509191119 | 30 | 254 | 4.8 | 6.4 | 0.00 | 0.00 | 0.00 | 51 | 1008.9 |
| 20260509191020 | 30 | 142 | 3.2 | 3.2 | 0.00 | 0.00 | 0.00 | 51 | 1008.8 |
| 20260509190920 | 30 | 231 | 1.6 | 3.2 | 0.00 | 0.00 | 0.00 | 51 | 1008.6 |
| 20260509190620 | 30 | 139 | 3.2 | 6.4 | 0.00 | 0.00 | 0.00 | 52 | 1008.8 |
| 20260509190320 | 30 | 312 | 3.2 | 4.8 | 0.00 | 0.00 | 0.00 | 53 | 1008.8 |
| 20260509190220 | 30 | 219 | 3.2 | 3.2 | 0.00 | 0.00 | 0.00 | 53 | 1008.8 |
| 20260509185920 | 30 | 126 | 3.2 | 4.8 | 0.00 | 0.00 | 0.00 | 56 | 1008.9 |
| 20260509185820 | 29 | 211 | 0.0 | 3.2 | 0.00 | 0.00 | 0.00 | 56 | 1009.1 |
| 20260509185520 | 29 | 220 | 1.6 | 9.7 | 0.00 | 0.00 | 0.00 | 55 | 1009.0 |
| 20260509185420 | 29 | 277 | 6.4 | 9.7 | 0.00 | 0.00 | 0.00 | 54 | 1009.1 |
| 20260509185321 | 29 | 268 | 8.0 | 8.0 | 0.00 | 0.00 | 0.00 | 55 | 1008.9 |
| 20260509185220 | 29 | 299 | 3.2 | 4.8 | 0.00 | 0.00 | 0.00 | 55 | 1009.0 |
| 20260509185021 | 29 | 136 | 3.2 | 4.8 | 0.00 | 0.00 | 0.00 | 59 | 1009.1 |
| 20260509184920 | 29 | 205 | 0.0 | 8.0 | 0.00 | 0.00 | 0.00 | 59 | 1009.1 |
| 20260509184820 | 29 | 293 | 1.6 | 8.0 | 0.00 | 0.00 | 0.00 | 58 | 1008.8 |
| 20260509184720 | 29 | 104 | 3.2 | 6.4 | 0.00 | 0.00 | 0.00 | 58 | 1009.1 |
| 20260509184521 | 29 | 183 | 0.0 | 3.2 | 0.00 | 0.00 | 0.00 | 58 | 1009.2 |
| 20260509184420 | 28 | 295 | 3.2 | 4.8 | 0.00 | 0.00 | 0.00 | 57 | 1009.1 |
| 20260509184220 | 29 | 258 | 3.2 | 8.0 | 0.00 | 0.00 | 0.00 | 55 | 1008.9 |
| 20260509184120 | 29 | 267 | 6.4 | 8.0 | 0.00 | 0.00 | 0.00 | 55 | 1009.0 |
| 20260509184020 | 29 | 281 | 4.8 | 8.0 | 0.00 | 0.00 | 0.00 | 56 | 1009.0 |
| 20260509183920 | 29 | 269 | 3.2 | 4.8 | 0.00 | 0.00 | 0.00 | 58 | 1009.0 |
| 20260509183619 | 28 | 120 | 4.8 | 6.4 | 0.00 | 0.00 | 0.00 | 59 | 1009.5 |
| 20260509183519 | 28 | 255 | 0.0 | 6.4 | 0.00 | 0.00 | 0.00 | 60 | 1009.2 |
| 20260509183420 | 29 | 292 | 4.8 | 9.7 | 0.00 | 0.00 | 0.00 | 59 | 1009.1 |
| 20260509183320 | 29 | 282 | 6.4 | 8.0 | 0.00 | 0.00 | 0.00 | 58 | 1009.1 |
| 20260509183220 | 29 | 266 | 4.8 | 8.0 | 0.00 | 0.00 | 0.00 | 58 | 1009.3 |
| 20260509183020 | 29 | 284 | 3.2 | 3.2 | 0.00 | 0.00 | 0.00 | 60 | 1009.1 |
| 20260509182719 | 28 | 252 | 0.0 | 6.4 | 0.00 | 0.00 | 0.00 | 60 | 1009.5 |
| 20260509182519 | 28 | 283 | 1.6 | 6.4 | 0.00 | 0.00 | 0.00 | 60 | 1009.1 |
| 20260509182420 | 28 | 263 | 3.2 | 6.4 | 0.00 | 0.00 | 0.00 | 60 | 1009.4 |
| 20260509182120 | 29 | 286 | 12.9 | 12.9 | 0.00 | 0.00 | 0.00 | 59 | 1009.3 |
| 20260509182020 | 29 | 276 | 4.8 | 6.4 | 0.00 | 0.00 | 0.00 | 60 | 1009.3 |
| 20260509181520 | 28 | 303 | 3.2 | 4.8 | 0.00 | 0.00 | 0.00 | 62 | 1009.6 |
| 20260509181420 | 28 | 310 | 0.0 | 4.8 | 0.00 | 0.00 | 0.00 | 62 | 1009.5 |
| 20260509181020 | 27 | 211 | 0.0 | 6.4 | 0.00 | 0.00 | 0.00 | 64 | 1009.6 |
| 20260509180919 | 27 | 240 | 3.2 | 8.0 | 0.00 | 0.00 | 0.00 | 63 | 1009.5 |
| 20260509180820 | 27 | 304 | 3.2 | 8.0 | 0.00 | 0.00 | 0.00 | 62 | 1009.5 |
| 20260509180720 | 28 | 282 | 6.4 | 8.0 | 0.00 | 0.00 | 0.00 | 62 | 1009.6 |
| 20260509180620 | 28 | 277 | 6.4 | 8.0 | 0.00 | 0.00 | 0.00 | 63 | 1009.6 |
| 20260509180519 | 28 | 286 | 1.6 | 4.8 | 0.00 | 0.00 | 0.00 | 63 | 1009.7 |
| 20260509180120 | 28 | 268 | 3.2 | 8.0 | 0.00 | 0.00 | 0.00 | 61 | 1009.6 |
| 20260509175821 | 28 | 290 | 3.2 | 4.8 | 0.00 | 0.00 | 0.00 | 62 | 1009.7 |
| 20260509175520 | 28 | 272 | 0.0 | 3.2 | 0.00 | 0.00 | 0.00 | 62 | 1009.6 |
| 20260509175420 | 28 | 293 | 1.6 | 3.2 | 0.00 | 0.00 | 0.00 | 63 | 1009.7 |
| 20260509175320 | 28 | 287 | 0.0 | 3.2 | 0.00 | 0.00 | 0.00 | 63 | 1009.7 |
| 20260509175121 | 28 | 206 | 1.6 | 6.4 | 0.00 | 0.00 | 0.00 | 62 | 1009.7 |
| 20260509174920 | 28 | 237 | 4.8 | 8.0 | 0.00 | 0.00 | 0.00 | 61 | 1009.8 |
| 20260509174820 | 28 | 272 | 3.2 | 8.0 | 0.00 | 0.00 | 0.00 | 62 | 1009.8 |
| 20260509174720 | 28 | 310 | 0.0 | 4.8 | 0.00 | 0.00 | 0.00 | 63 | 1010.0 |
| 20260509173920 | 28 | 285 | 3.2 | 6.4 | 0.00 | 0.00 | 0.00 | 62 | 1009.8 |
| 20260509173821 | 28 | 286 | 3.2 | 6.4 | 0.00 | 0.00 | 0.00 | 62 | 1009.9 |
| 20260509173720 | 28 | 283 | 3.2 | 3.2 | 0.00 | 0.00 | 0.00 | 64 | 1009.8 |
| 20260509173120 | 27 | 330 | 1.6 | 4.8 | 0.00 | 0.00 | 0.00 | 64 | 1010.0 |
| 20260509172920 | 27 | 260 | 1.6 | 3.2 | 0.00 | 0.00 | 0.00 | 65 | 1010.0 |
| 20260509172520 | 27 | 304 | 0.0 | 4.8 | 0.00 | 0.00 | 0.00 | 65 | 1010.1 |
| 20260509172421 | 27 | 321 | 3.2 | 4.8 | 0.00 | 0.00 | 0.00 | 65 | 1010.1 |
| 20260509172220 | 27 | 267 | 1.6 | 4.8 | 0.00 | 0.00 | 0.00 | 66 | 1010.0 |
| 20260509171920 | 26 | 130 | 0.0 | 4.8 | 0.00 | 0.00 | 0.00 | 69 | 1010.2 |
| 20260509171820 | 26 | 124 | 3.2 | 8.0 | 0.00 | 0.00 | 0.00 | 70 | 1010.3 |
| 20260509171720 | 26 | 350 | 0.0 | 8.0 | 0.00 | 0.00 | 0.00 | 70 | 1010.7 |
| 20260509171620 | 26 | 110 | 3.2 | 8.0 | 0.00 | 0.00 | 0.00 | 69 | 1010.5 |
| 20260509171520 | 26 | 276 | 4.8 | 8.0 | 0.00 | 0.00 | 0.00 | 68 | 1010.5 |
| 20260509171420 | 26 | 291 | 3.2 | 8.0 | 0.00 | 0.00 | 0.00 | 69 | 1010.5 |
| 20260509171319 | 26 | 274 | 6.4 | 9.7 | 0.00 | 0.00 | 0.00 | 70 | 1010.4 |
| 20260509171220 | 26 | 276 | 3.2 | 11.3 | 0.00 | 0.00 | 0.00 | 70 | 1010.5 |
| 20260509171119 | 26 | 243 | 3.2 | 11.3 | 0.00 | 0.00 | 0.00 | 69 | 1010.5 |
| 20260509171020 | 26 | 283 | 6.4 | 9.7 | 0.00 | 0.00 | 0.00 | 69 | 1010.5 |
| 20260509170720 | 26 | 222 | 1.6 | 8.0 | 0.00 | 0.00 | 0.00 | 70 | 1010.4 |
| 20260509170621 | 26 | 287 | 6.4 | 8.0 | 0.00 | 0.00 | 0.00 | 70 | 1010.6 |
| 20260509170520 | 26 | 277 | 6.4 | 9.7 | 0.00 | 0.00 | 0.00 | 69 | 1010.5 |
| 20260509170420 | 26 | 284 | 6.4 | 9.7 | 0.00 | 0.00 | 0.00 | 70 | 1010.4 |
| 20260509165720 | 26 | 280 | 6.4 | 6.4 | 0.00 | 0.00 | 0.00 | 70 | 1010.2 |
| 20260509165620 | 26 | 279 | 6.4 | 6.4 | 0.00 | 0.00 | 0.00 | 70 | 1010.4 |
| 20260509165520 | 26 | 263 | 4.8 | 4.8 | 0.00 | 0.00 | 0.00 | 71 | 1010.5 |
| 20260509165420 | 26 | 192 | 3.2 | 6.4 | 0.00 | 0.00 | 0.00 | 70 | 1010.6 |
| 20260509165320 | 26 | 292 | 1.6 | 6.4 | 0.00 | 0.00 | 0.00 | 70 | 1010.5 |
| 20260509165220 | 25 | 269 | 3.2 | 4.8 | 0.00 | 0.00 | 0.00 | 70 | 1010.3 |
| 20260509165120 | 25 | 223 | 3.2 | 6.4 | 0.00 | 0.00 | 0.00 | 70 | 1010.6 |
| 20260509165020 | 25 | 286 | 6.4 | 6.4 | 0.00 | 0.00 | 0.00 | 70 | 1010.6 |
| 20260509164820 | 26 | 287 | 6.4 | 8.0 | 0.00 | 0.00 | 0.00 | 70 | 1010.5 |
| 20260509164720 | 26 | 227 | 0.0 | 6.4 | 0.00 | 0.00 | 0.00 | 70 | 1010.3 |
| 20260509164620 | 26 | 272 | 6.4 | 9.7 | 0.00 | 0.00 | 0.00 | 70 | 1010.6 |
| 20260509164420 | 26 | 269 | 6.4 | 6.4 | 0.00 | 0.00 | 0.00 | 71 | 1010.4 |
| 20260509164320 | 25 | 33 | 1.6 | 6.4 | 0.00 | 0.00 | 0.00 | 71 | 1010.5 |
| 20260509164220 | 25 | 248 | 3.2 | 6.4 | 0.00 | 0.00 | 0.00 | 72 | 1010.5 |
| 20260509164120 | 25 | 251 | 0.0 | 4.8 | 0.00 | 0.00 | 0.00 | 73 | 1010.2 |
| 20260509163820 | 25 | 287 | 6.4 | 11.3 | 0.00 | 0.00 | 0.00 | 73 | 1010.5 |
| 20260509163721 | 25 | 277 | 8.0 | 12.9 | 0.00 | 0.00 | 0.00 | 73 | 1010.4 |
| 20260509163321 | 25 | 279 | 4.8 | 9.7 | 0.00 | 0.00 | 0.00 | 73 | 1010.3 |
| 20260509163220 | 25 | 281 | 6.4 | 8.0 | 0.00 | 0.00 | 0.00 | 73 | 1010.4 |
| 20260509163120 | 25 | 251 | 4.8 | 8.0 | 0.00 | 0.00 | 0.00 | 74 | 1010.4 |
| 20260509162820 | 25 | 276 | 8.0 | 8.0 | 0.00 | 0.00 | 0.00 | 74 | 1010.4 |
| 20260509162621 | 25 | 277 | 3.2 | 9.7 | 0.00 | 0.00 | 0.00 | 73 | 1010.6 |
| 20260509162520 | 25 | 253 | 6.4 | 9.7 | 0.00 | 0.00 | 0.00 | 72 | 1010.6 |
| 20260509162420 | 25 | 273 | 8.0 | 9.7 | 0.00 | 0.00 | 0.00 | 72 | 1010.3 |
| 20260509162320 | 25 | 276 | 6.4 | 9.7 | 0.00 | 0.00 | 0.00 | 72 | 1010.5 |
| 20260509162221 | 25 | 276 | 4.8 | 9.7 | 0.00 | 0.00 | 0.00 | 71 | 1010.2 |
| 20260509162120 | 25 | 267 | 3.2 | 6.4 | 0.00 | 0.00 | 0.00 | 72 | 1010.4 |
| 20260509162021 | 25 | 245 | 3.2 | 4.8 | 0.00 | 0.00 | 0.00 | 73 | 1010.4 |
| 20260509161920 | 25 | 205 | 3.2 | 11.3 | 0.00 | 0.00 | 0.00 | 73 | 1010.2 |
| 20260509161820 | 25 | 315 | 3.2 | 12.9 | 0.00 | 0.00 | 0.00 | 72 | 1010.3 |
| 20260509161521 | 25 | 278 | 3.2 | 6.4 | 0.00 | 0.00 | 0.00 | 72 | 1010.2 |
| 20260509161420 | 25 | 36 | 3.2 | 3.2 | 0.00 | 0.00 | 0.00 | 72 | 1010.5 |
| 20260509160921 | 25 | 303 | 3.2 | 8.0 | 0.00 | 0.00 | 0.00 | 73 | 1010.4 |
| 20260509160820 | 25 | 287 | 6.4 | 8.0 | 0.00 | 0.00 | 0.00 | 73 | 1010.3 |
| 20260509160720 | 25 | 252 | 1.6 | 8.0 | 0.00 | 0.00 | 0.00 | 72 | 1010.3 |
| 20260509160621 | 25 | 206 | 3.2 | 8.0 | 0.00 | 0.00 | 0.00 | 72 | 1010.3 |
| 20260509160521 | 25 | 288 | 1.6 | 6.4 | 0.00 | 0.00 | 0.00 | 72 | 1010.3 |
| 20260509160420 | 25 | 287 | 6.4 | 6.4 | 0.00 | 0.00 | 0.00 | 72 | 1010.3 |
| 20260509155920 | 25 | 1 | 3.2 | 3.2 | 0.00 | 0.00 | 0.00 | 73 | 1010.4 |
| 20260509155720 | 25 | 333 | 0.0 | 4.8 | 0.00 | 0.00 | 0.00 | 74 | 1010.5 |
| 20260509155620 | 24 | 111 | 3.2 | 6.4 | 0.00 | 0.00 | 0.00 | 75 | 1010.4 |
| 20260509155320 | 23 | 97 | 4.8 | 6.4 | 0.00 | 0.00 | 0.00 | 78 | 1010.5 |
| 20260509155220 | 23 | 30 | 3.2 | 9.7 | 0.00 | 0.00 | 0.00 | 77 | 1010.8 |
| 20260509155120 | 23 | 264 | 9.7 | 9.7 | 0.00 | 0.00 | 0.00 | 77 | 1010.5 |
| 20260509154920 | 23 | 222 | 0.0 | 6.4 | 0.00 | 0.00 | 0.00 | 77 | 1010.5 |
| 20260509154720 | 23 | 287 | 3.2 | 11.3 | 0.00 | 0.00 | 0.00 | 78 | 1010.5 |
| 20260509154520 | 23 | 273 | 6.4 | 8.0 | 0.00 | 0.00 | 0.00 | 77 | 1010.5 |
| 20260509154420 | 23 | 281 | 6.4 | 9.7 | 0.00 | 0.00 | 0.00 | 77 | 1010.5 |
| 20260509154321 | 23 | 271 | 4.8 | 9.7 | 0.00 | 0.00 | 0.00 | 77 | 1010.7 |
| 20260509154220 | 23 | 267 | 6.4 | 8.0 | 0.00 | 0.00 | 0.00 | 77 | 1010.6 |
| 20260509154020 | 23 | 265 | 3.2 | 11.3 | 0.00 | 0.00 | 0.00 | 77 | 1010.7 |
| 20260509153720 | 23 | 284 | 6.4 | 8.0 | 0.00 | 0.00 | 0.00 | 76 | 1010.6 |
| 20260509153620 | 23 | 269 | 3.2 | 9.7 | 0.00 | 0.00 | 0.00 | 76 | 1010.6 |
| 20260509153520 | 23 | 271 | 9.7 | 9.7 | 0.00 | 0.00 | 0.00 | 77 | 1010.6 |
| 20260509153220 | 24 | 272 | 3.2 | 6.4 | 0.00 | 0.00 | 0.00 | 76 | 1010.5 |
| 20260509153120 | 24 | 285 | 6.4 | 9.7 | 0.00 | 0.00 | 0.00 | 75 | 1010.4 |
| 20260509153020 | 24 | 264 | 4.8 | 8.0 | 0.00 | 0.00 | 0.00 | 76 | 1010.5 |
| 20260509152920 | 24 | 219 | 1.6 | 4.8 | 0.00 | 0.00 | 0.00 | 76 | 1010.5 |
| 20260509152820 | 24 | 47 | 1.6 | 3.2 | 0.00 | 0.00 | 0.00 | 76 | 1010.5 |
| 20260509152720 | 24 | 306 | 1.6 | 4.8 | 0.00 | 0.00 | 0.00 | 76 | 1010.4 |